Wetterdaten: Sonntag, 23.05.2021
Datum Zeit Temp. Aussen Temp. o. S. Temp +5cm Feuchte Auss Luftdruck Regen Sonnenschein Regendauer Solar Windben Empfang
23.05.2021 00:00 9,9 C 8,9 C 7,3 C 96 % 1009,1 hPa 0,0 l/m 0 min 0 min 0 W/m 22,5 km/h (4 Bft) 100,00 %
23.05.2021 00:02 9,9 C 8,9 C 7,3 C 96 % 1009,1 hPa 0,0 l/m 0 min 0 min 0 W/m 19,3 km/h (3 Bft) 100,00 %
23.05.2021 00:04 9,9 C 8,9 C 7,3 C 96 % 1009,1 hPa 0,0 l/m 0 min 0 min 0 W/m 16,1 km/h (3 Bft) 97,87 %
23.05.2021 00:08 9,8 C 8,9 C 7,3 C 96 % 1009,1 hPa 0,0 l/m 0 min 0 min 0 W/m 16,1 km/h (3 Bft) 97,87 %
23.05.2021 00:10 9,8 C 8,9 C 7,3 C 96 % 1009,2 hPa 0,0 l/m 0 min 0 min 0 W/m 19,3 km/h (3 Bft) 97,87 %
23.05.2021 00:12 9,8 C 8,9 C 7,3 C 96 % 1009,2 hPa 0,0 l/m 0 min 0 min 0 W/m 9,7 km/h (2 Bft) 97,83 %
23.05.2021 00:14 9,8 C 8,9 C 7,3 C 96 % 1009,2 hPa 0,0 l/m 0 min 0 min 0 W/m 12,9 km/h (3 Bft) 95,74 %
23.05.2021 00:16 9,8 C 8,9 C 7,3 C 96 % 1009,2 hPa 0,0 l/m 0 min 0 min 0 W/m 12,9 km/h (3 Bft) 97,87 %
23.05.2021 00:18 9,8 C 8,9 C 7,3 C 96 % 1009,2 hPa 0,0 l/m 0 min 0 min 0 W/m 9,7 km/h (2 Bft) 97,87 %
23.05.2021 00:20 9,7 C 8,9 C 7,3 C 96 % 1009,2 hPa 0,0 l/m 0 min 0 min 0 W/m 22,5 km/h (4 Bft) 97,87 %
23.05.2021 00:22 9,7 C 8,9 C 7,3 C 96 % 1009,3 hPa 0,0 l/m 0 min 0 min 0 W/m 16,1 km/h (3 Bft) 98,04 %
23.05.2021 00:24 9,7 C 8,9 C 7,3 C 96 % 1009,3 hPa 0,0 l/m 0 min 0 min 0 W/m 16,1 km/h (3 Bft) 97,87 %
23.05.2021 00:26 9,7 C 8,9 C 7,3 C 96 % 1009,3 hPa 0,0 l/m 0 min 0 min 0 W/m 9,7 km/h (2 Bft) 95,74 %
23.05.2021 00:28 9,7 C 8,9 C 7,3 C 96 % 1009,3 hPa 0,0 l/m 0 min 0 min 0 W/m 9,7 km/h (2 Bft) 97,87 %
23.05.2021 00:30 9,7 C 8,9 C 7,3 C 96 % 1009,3 hPa 0,0 l/m 0 min 0 min 0 W/m 9,7 km/h (2 Bft) 97,83 %
23.05.2021 00:32 9,7 C 8,9 C 7,3 C 96 % 1009,3 hPa 0,0 l/m 0 min 0 min 0 W/m 12,9 km/h (3 Bft) 97,87 %
23.05.2021 00:34 9,7 C 8,9 C 7,3 C 96 % 1009,4 hPa 0,0 l/m 0 min 0 min 0 W/m 12,9 km/h (3 Bft) 95,74 %
23.05.2021 00:36 9,6 C 8,9 C 7,3 C 96 % 1009,4 hPa 0,0 l/m 0 min 0 min 0 W/m 12,9 km/h (3 Bft) 97,87 %
23.05.2021 00:38 9,6 C 8,9 C 7,3 C 96 % 1009,5 hPa 0,0 l/m 0 min 0 min 0 W/m 9,7 km/h (2 Bft) 97,87 %
23.05.2021 00:40 9,6 C 8,9 C 7,3 C 95 % 1009,4 hPa 0,0 l/m 0 min 0 min 0 W/m 9,7 km/h (2 Bft) 97,78 %
23.05.2021 00:42 9,6 C 8,9 C 7,3 C 95 % 1009,5 hPa 0,0 l/m 0 min 0 min 0 W/m 9,7 km/h (2 Bft) 95,74 %
23.05.2021 00:44 9,6 C 8,9 C 7,3 C 95 % 1009,4 hPa 0,0 l/m 0 min 0 min 0 W/m 12,9 km/h (3 Bft) 97,87 %
23.05.2021 00:46 9,6 C 8,9 C 7,3 C 95 % 1009,4 hPa 0,0 l/m 0 min 0 min 0 W/m 6,4 km/h (2 Bft) 100,00 %
23.05.2021 00:48 9,6 C 8,9 C 7,3 C 95 % 1009,5 hPa 0,0 l/m 0 min 0 min 0 W/m 6,4 km/h (2 Bft) 100,00 %
23.05.2021 00:50 9,6 C 8,9 C 7,3 C 95 % 1009,4 hPa 0,0 l/m 0 min 0 min 0 W/m 12,9 km/h (3 Bft) 100,00 %
23.05.2021 00:52 9,6 C 8,9 C 7,3 C 95 % 1009,5 hPa 0,0 l/m 0 min 0 min 0 W/m 9,7 km/h (2 Bft) 100,00 %
23.05.2021 00:54 9,6 C 8,9 C 7,3 C 95 % 1009,5 hPa 0,0 l/m 0 min 0 min 0 W/m 12,9 km/h (3 Bft) 100,00 %
23.05.2021 00:56 9,6 C 8,9 C 7,3 C 95 % 1009,5 hPa 0,0 l/m 0 min 0 min 0 W/m 6,4 km/h (2 Bft) 100,00 %
23.05.2021 00:58 9,6 C 8,9 C 7,3 C 95 % 1009,5 hPa 0,0 l/m 0 min 0 min 0 W/m 6,4 km/h (2 Bft) 100,00 %
23.05.2021 01:00 9,6 C 8,9 C 7,3 C 95 % 1009,6 hPa 0,0 l/m 0 min 0 min 0 W/m 6,4 km/h (2 Bft) 95,74 %
23.05.2021 01:02 9,6 C 8,9 C 7,3 C 95 % 1009,5 hPa 0,0 l/m 0 min 0 min 0 W/m 6,4 km/h (2 Bft) 100,00 %
23.05.2021 01:04 9,6 C 8,9 C 7,3 C 95 % 1009,6 hPa 0,0 l/m 0 min 0 min 0 W/m 9,7 km/h (2 Bft) 100,00 %
23.05.2021 01:06 9,6 C 8,9 C 7,3 C 95 % 1009,6 hPa 0,0 l/m 0 min 0 min 0 W/m 9,7 km/h (2 Bft) 97,83 %
23.05.2021 01:08 9,6 C 8,9 C 7,3 C 95 % 1009,6 hPa 0,0 l/m 0 min 0 min 0 W/m 9,7 km/h (2 Bft) 100,00 %
23.05.2021 01:10 9,6 C 8,9 C 7,3 C 95 % 1009,6 hPa 0,0 l/m 0 min 0 min 0 W/m 9,7 km/h (2 Bft) 100,00 %
23.05.2021 01:12 9,6 C 8,9 C 7,3 C 95 % 1009,6 hPa 0,0 l/m 0 min 0 min 0 W/m 6,4 km/h (2 Bft) 100,00 %
23.05.2021 01:14 9,6 C 8,9 C 7,3 C 95 % 1009,7 hPa 0,0 l/m 0 min 0 min 0 W/m 6,4 km/h (2 Bft) 100,00 %
23.05.2021 01:16 9,5 C 8,9 C 7,3 C 95 % 1009,7 hPa 0,0 l/m 0 min 0 min 0 W/m 3,2 km/h (1 Bft) 100,00 %
23.05.2021 01:18 9,6 C 8,9 C 7,3 C 95 % 1009,7 hPa 0,0 l/m 0 min 0 min 0 W/m 12,9 km/h (3 Bft) 100,00 %
23.05.2021 01:20 9,5 C 8,9 C 7,3 C 95 % 1009,7 hPa 0,0 l/m 0 min 0 min 0 W/m 12,9 km/h (3 Bft) 100,00 %
23.05.2021 01:22 9,6 C 8,9 C 7,3 C 95 % 1009,7 hPa 0,0 l/m 0 min 2 min 0 W/m 12,9 km/h (3 Bft) 97,83 %
23.05.2021 01:24 9,5 C 8,9 C 7,3 C 95 % 1009,7 hPa 0,2 l/m 0 min 2 min 0 W/m 19,3 km/h (3 Bft) 100,00 %
23.05.2021 01:26 9,5 C 8,9 C 7,3 C 95 % 1009,7 hPa 0,0 l/m 0 min 2 min 0 W/m 12,9 km/h (3 Bft) 100,00 %
23.05.2021 01:28 9,5 C 8,9 C 7,3 C 95 % 1009,8 hPa 0,0 l/m 0 min 0 min 0 W/m 12,9 km/h (3 Bft) 100,00 %
23.05.2021 01:30 9,5 C 8,9 C 7,3 C 95 % 1009,8 hPa 0,0 l/m 0 min 0 min 0 W/m 6,4 km/h (2 Bft) 100,00 %
23.05.2021 01:32 9,5 C 8,9 C 7,3 C 95 % 1009,8 hPa 0,0 l/m 0 min 2 min 0 W/m 6,4 km/h (2 Bft) 100,00 %
23.05.2021 01:34 9,5 C 8,9 C 7,3 C 95 % 1009,8 hPa 0,0 l/m 0 min 2 min 0 W/m 3,2 km/h (1 Bft) 100,00 %
23.05.2021 01:36 9,5 C 8,9 C 7,3 C 95 % 1009,8 hPa 0,0 l/m 0 min 0 min 0 W/m 6,4 km/h (2 Bft) 100,00 %
23.05.2021 01:38 9,5 C 8,9 C 7,3 C 95 % 1009,8 hPa 0,0 l/m 0 min 0 min 0 W/m 12,9 km/h (3 Bft) 100,00 %
23.05.2021 01:40 9,5 C 8,9 C 7,3 C 95 % 1009,8 hPa 0,0 l/m 0 min 0 min 0 W/m 19,3 km/h (3 Bft) 100,00 %
23.05.2021 01:42 9,5 C 8,9 C 7,3 C 95 % 1009,8 hPa 0,0 l/m 0 min 0 min 0 W/m 12,9 km/h (3 Bft) 100,00 %
23.05.2021 01:44 9,4 C 8,9 C 7,3 C 95 % 1009,9 hPa 0,0 l/m 0 min 0 min 0 W/m 6,4 km/h (2 Bft) 100,00 %
23.05.2021 01:46 9,4 C 8,9 C 7,3 C 95 % 1009,8 hPa 0,0 l/m 0 min 0 min 0 W/m 12,9 km/h (3 Bft) 100,00 %
23.05.2021 01:48 9,4 C 8,9 C 7,3 C 95 % 1009,8 hPa 0,0 l/m 0 min 0 min 0 W/m 3,2 km/h (1 Bft) 100,00 %
23.05.2021 01:50 9,4 C 8,9 C 7,3 C 95 % 1009,8 hPa 0,0 l/m 0 min 0 min 0 W/m 12,9 km/h (3 Bft) 100,00 %
23.05.2021 01:52 9,4 C 8,9 C 7,3 C 95 % 1009,8 hPa 0,0 l/m 0 min 0 min 0 W/m 12,9 km/h (3 Bft) 100,00 %
23.05.2021 01:54 9,4 C 8,9 C 7,3 C 95 % 1009,8 hPa 0,0 l/m 0 min 0 min 0 W/m 9,7 km/h (2 Bft) 100,00 %
23.05.2021 01:56 9,4 C 8,9 C 7,3 C 95 % 1009,8 hPa 0,0 l/m 0 min 0 min 0 W/m 9,7 km/h (2 Bft) 100,00 %
23.05.2021 01:58 9,4 C 8,9 C 7,3 C 95 % 1009,8 hPa 0,0 l/m 0 min 0 min 0 W/m 3,2 km/h (1 Bft) 100,00 %
23.05.2021 02:00 9,4 C 8,9 C 7,3 C 95 % 1009,7 hPa 0,0 l/m 0 min 0 min 0 W/m 12,9 km/h (3 Bft) 97,87 %
23.05.2021 02:02 9,4 C 8,9 C 7,3 C 95 % 1009,8 hPa 0,0 l/m 0 min 0 min 0 W/m 6,4 km/h (2 Bft) 100,00 %
23.05.2021 02:04 9,4 C 8,9 C 7,3 C 95 % 1009,8 hPa 0,0 l/m 0 min 0 min 0 W/m 22,5 km/h (4 Bft) 100,00 %
23.05.2021 02:06 9,4 C 8,9 C 7,3 C 95 % 1009,8 hPa 0,0 l/m 0 min 2 min 0 W/m 19,3 km/h (3 Bft) 100,00 %
23.05.2021 02:08 9,4 C 8,9 C 7,3 C 95 % 1009,8 hPa 0,0 l/m 0 min 2 min 0 W/m 12,9 km/h (3 Bft) 97,87 %
23.05.2021 02:10 9,4 C 8,9 C 7,3 C 95 % 1009,7 hPa 0,0 l/m 0 min 2 min 0 W/m 9,7 km/h (2 Bft) 95,65 %
23.05.2021 02:12 9,4 C 8,9 C 7,3 C 95 % 1009,7 hPa 0,0 l/m 0 min 2 min 0 W/m 9,7 km/h (2 Bft) 97,87 %
23.05.2021 02:14 9,4 C 8,9 C 7,3 C 95 % 1009,7 hPa 0,0 l/m 0 min 2 min 0 W/m 16,1 km/h (3 Bft) 97,87 %
23.05.2021 02:16 9,4 C 8,9 C 7,3 C 95 % 1009,7 hPa 0,0 l/m 0 min 2 min 0 W/m 6,4 km/h (2 Bft) 98,00 %
23.05.2021 02:18 9,4 C 8,9 C 7,3 C 95 % 1009,7 hPa 0,0 l/m 0 min 2 min 0 W/m 22,5 km/h (4 Bft) 97,87 %
23.05.2021 02:20 9,4 C 8,3 C 7,3 C 95 % 1009,7 hPa 0,0 l/m 0 min 0 min 0 W/m 9,7 km/h (2 Bft) 97,83 %
23.05.2021 02:22 9,4 C 8,9 C 7,3 C 95 % 1009,7 hPa 0,0 l/m 0 min 2 min 0 W/m 12,9 km/h (3 Bft) 97,87 %
23.05.2021 02:24 9,4 C 8,9 C 7,3 C 95 % 1009,7 hPa 0,0 l/m 0 min 2 min 0 W/m 12,9 km/h (3 Bft) 95,74 %
23.05.2021 02:26 9,4 C 8,3 C 7,3 C 95 % 1009,7 hPa 0,0 l/m 0 min 2 min 0 W/m 9,7 km/h (2 Bft) 95,74 %
23.05.2021 02:28 9,4 C 8,3 C 7,3 C 95 % 1009,7 hPa 0,0 l/m 0 min 2 min 0 W/m 12,9 km/h (3 Bft) 97,87 %
23.05.2021 02:30 9,4 C 8,3 C 7,3 C 95 % 1009,7 hPa 0,0 l/m 0 min 2 min 0 W/m 6,4 km/h (2 Bft) 97,96 %
23.05.2021 02:32 9,4 C 8,3 C 7,3 C 95 % 1009,8 hPa 0,2 l/m 0 min 2 min 0 W/m 6,4 km/h (2 Bft) 95,74 %
23.05.2021 02:34 9,4 C 8,3 C 7,3 C 96 % 1009,7 hPa 0,0 l/m 0 min 2 min 0 W/m 12,9 km/h (3 Bft) 95,74 %
23.05.2021 02:36 9,4 C 8,3 C 7,3 C 96 % 1009,8 hPa 0,0 l/m 0 min 2 min 0 W/m 3,2 km/h (1 Bft) 95,74 %
23.05.2021 02:38 9,3 C 8,3 C 7,3 C 96 % 1009,8 hPa 0,0 l/m 0 min 2 min 0 W/m 6,4 km/h (2 Bft) 95,74 %
23.05.2021 02:40 9,4 C 8,3 C 7,3 C 96 % 1009,8 hPa 0,0 l/m 0 min 2 min 0 W/m 12,9 km/h (3 Bft) 95,65 %
23.05.2021 02:42 9,3 C 8,3 C 7,3 C 96 % 1009,8 hPa 0,0 l/m 0 min 2 min 0 W/m 3,2 km/h (1 Bft) 93,62 %
23.05.2021 02:44 9,3 C 8,3 C 7,3 C 96 % 1009,8 hPa 0,0 l/m 0 min 2 min 0 W/m 6,4 km/h (2 Bft) 97,14 %
23.05.2021 02:46 9,3 C 8,3 C 7,3 C 96 % 1009,8 hPa 0,0 l/m 0 min 2 min 0 W/m 6,4 km/h (2 Bft) 93,62 %
23.05.2021 02:48 9,3 C 8,3 C 7,3 C 96 % 1009,8 hPa 0,2 l/m 0 min 2 min 0 W/m 9,7 km/h (2 Bft) 93,62 %
23.05.2021 02:50 9,3 C 8,3 C 7,3 C 96 % 1009,8 hPa 0,0 l/m 0 min 2 min 0 W/m 6,4 km/h (2 Bft) 95,74 %
23.05.2021 02:52 9,3 C 8,3 C 7,3 C 96 % 1009,8 hPa 0,0 l/m 0 min 2 min 0 W/m 6,4 km/h (2 Bft) 93,62 %
23.05.2021 02:54 9,3 C 8,3 C 7,3 C 96 % 1009,9 hPa 0,0 l/m 0 min 2 min 0 W/m 3,2 km/h (1 Bft) 95,65 %
23.05.2021 02:56 9,3 C 8,3 C 7,3 C 96 % 1009,9 hPa 0,0 l/m 0 min 2 min 0 W/m 3,2 km/h (1 Bft) 95,74 %
23.05.2021 02:58 9,3 C 8,3 C 7,3 C 96 % 1009,9 hPa 0,0 l/m 0 min 2 min 0 W/m 3,2 km/h (1 Bft) 95,83 %
23.05.2021 03:00 9,3 C 8,3 C 7,3 C 96 % 1009,9 hPa 0,0 l/m 0 min 0 min 0 W/m 3,2 km/h (1 Bft) 95,74 %
23.05.2021 03:02 9,3 C 8,3 C 7,3 C 96 % 1009,9 hPa 0,0 l/m 0 min 0 min 0 W/m 6,4 km/h (2 Bft) 91,49 %
23.05.2021 03:04 9,3 C 8,3 C 7,3 C 96 % 1009,9 hPa 0,0 l/m 0 min 2 min 0 W/m 3,2 km/h (1 Bft) 95,74 %
23.05.2021 03:06 9,3 C 8,3 C 7,3 C 96 % 1009,9 hPa 0,2 l/m 0 min 2 min 0 W/m 6,4 km/h (2 Bft) 97,83 %
23.05.2021 03:08 9,2 C 8,3 C 7,3 C 96 % 1009,9 hPa 0,0 l/m 0 min 2 min 0 W/m 6,4 km/h (2 Bft) 95,74 %
23.05.2021 03:10 9,2 C 8,3 C 7,3 C 96 % 1009,9 hPa 0,0 l/m 0 min 2 min 0 W/m 6,4 km/h (2 Bft) 97,87 %
23.05.2021 03:12 9,2 C 8,3 C 7,3 C 96 % 1010,0 hPa 0,0 l/m 0 min 2 min 0 W/m 6,4 km/h (2 Bft) 96,23 %
23.05.2021 03:14 9,2 C 8,3 C 7,3 C 96 % 1010,0 hPa 0,0 l/m 0 min 0 min 0 W/m 3,2 km/h (1 Bft) 97,87 %
23.05.2021 03:16 9,2 C 8,3 C 7,3 C 96 % 1009,9 hPa 0,0 l/m 0 min 0 min 0 W/m 6,4 km/h (2 Bft) 100,00 %
23.05.2021 03:18 9,2 C 8,3 C 7,3 C 96 % 1010,0 hPa 0,0 l/m 0 min 0 min 0 W/m 3,2 km/h (1 Bft) 100,00 %
23.05.2021 03:20 9,2 C 8,3 C 7,3 C 96 % 1010,0 hPa 0,0 l/m 0 min 0 min 0 W/m 3,2 km/h (1 Bft) 100,00 %
23.05.2021 03:22 9,2 C 8,3 C 7,3 C 97 % 1010,0 hPa 0,0 l/m 0 min 2 min 0 W/m 3,2 km/h (1 Bft) 100,00 %
23.05.2021 03:24 9,2 C 8,3 C 7,3 C 97 % 1010,0 hPa 0,0 l/m 0 min 2 min 0 W/m 3,2 km/h (1 Bft) 97,87 %
23.05.2021 03:26 9,2 C 8,3 C 7,3 C 97 % 1010,0 hPa 0,0 l/m 0 min 2 min 0 W/m 6,4 km/h (2 Bft) 100,00 %
23.05.2021 03:28 9,2 C 8,3 C 7,3 C 97 % 1010,0 hPa 0,0 l/m 0 min 0 min 0 W/m 6,4 km/h (2 Bft) 100,00 %
23.05.2021 03:30 9,2 C 8,3 C 7,3 C 97 % 1010,0 hPa 0,0 l/m 0 min 2 min 0 W/m 6,4 km/h (2 Bft) 97,87 %
23.05.2021 03:32 9,2 C 8,3 C 7,3 C 97 % 1010,1 hPa 0,0 l/m 0 min 2 min 0 W/m 3,2 km/h (1 Bft) 100,00 %
23.05.2021 03:34 9,2 C 8,3 C 7,3 C 97 % 1010,0 hPa 0,0 l/m 0 min 0 min 0 W/m 3,2 km/h (1 Bft) 100,00 %
23.05.2021 03:36 9,2 C 8,3 C 7,3 C 97 % 1010,0 hPa 0,0 l/m 0 min 2 min 0 W/m 3,2 km/h (1 Bft) 100,00 %
23.05.2021 03:38 9,2 C 8,3 C 7,3 C 97 % 1010,1 hPa 0,0 l/m 0 min 2 min 0 W/m 16,1 km/h (3 Bft) 100,00 %
23.05.2021 03:40 9,1 C 8,3 C 7,3 C 97 % 1010,0 hPa 0,0 l/m 0 min 0 min 0 W/m 16,1 km/h (3 Bft) 100,00 %
23.05.2021 03:42 9,1 C 8,3 C 7,3 C 97 % 1010,0 hPa 0,0 l/m 0 min 2 min 0 W/m 6,4 km/h (2 Bft) 100,00 %
23.05.2021 03:44 9,1 C 8,3 C 7,3 C 97 % 1010,1 hPa 0,0 l/m 0 min 0 min 0 W/m 12,9 km/h (3 Bft) 100,00 %
23.05.2021 03:46 9,1 C 8,3 C 7,3 C 97 % 1010,0 hPa 0,0 l/m 0 min 2 min 0 W/m 3,2 km/h (1 Bft) 100,00 %
23.05.2021 03:48 9,1 C 8,3 C 7,3 C 97 % 1010,0 hPa 0,0 l/m 0 min 2 min 0 W/m 9,7 km/h (2 Bft) 100,00 %
23.05.2021 03:50 9,1 C 8,3 C 7,3 C 97 % 1010,0 hPa 0,0 l/m 0 min 2 min 0 W/m 12,9 km/h (3 Bft) 100,00 %
23.05.2021 03:52 9,1 C 8,3 C 7,3 C 97 % 1010,0 hPa 0,0 l/m 0 min 2 min 0 W/m 9,7 km/h (2 Bft) 100,00 %
23.05.2021 03:54 9,1 C 8,3 C 7,3 C 97 % 1010,0 hPa 0,0 l/m 0 min 2 min 0 W/m 6,4 km/h (2 Bft) 100,00 %
23.05.2021 03:56 9,1 C 8,3 C 7,3 C 97 % 1010,0 hPa 0,0 l/m 0 min 0 min 0 W/m 6,4 km/h (2 Bft) 100,00 %
23.05.2021 03:58 9,1 C 8,3 C 7,3 C 97 % 1010,0 hPa 0,0 l/m 0 min 2 min 0 W/m 6,4 km/h (2 Bft) 100,00 %
23.05.2021 04:00 9,1 C 8,3 C 7,3 C 97 % 1010,0 hPa 0,0 l/m 0 min 0 min 0 W/m 3,2 km/h (1 Bft) 100,00 %
23.05.2021 04:02 9,1 C 8,3 C 7,3 C 97 % 1010,0 hPa 0,0 l/m 0 min 0 min 0 W/m 3,2 km/h (1 Bft) 97,22 %
23.05.2021 04:04 9,2 C 8,3 C 7,3 C 97 % 1010,0 hPa 0,0 l/m 0 min 2 min 0 W/m 6,4 km/h (2 Bft) 100,00 %
23.05.2021 04:06 9,2 C 8,3 C 7,3 C 97 % 1010,0 hPa 0,0 l/m 0 min 0 min 0 W/m 3,2 km/h (1 Bft) 95,74 %
23.05.2021 04:08 9,2 C 8,3 C 7,3 C 97 % 1010,0 hPa 0,0 l/m 0 min 2 min 0 W/m 3,2 km/h (1 Bft) 100,00 %
23.05.2021 04:10 9,2 C 8,3 C 7,3 C 97 % 1010,0 hPa 0,2 l/m 0 min 0 min 0 W/m 6,4 km/h (2 Bft) 95,74 %
23.05.2021 04:12 9,1 C 8,3 C 7,3 C 97 % 1010,0 hPa 0,0 l/m 0 min 0 min 0 W/m 12,9 km/h (3 Bft) 97,87 %
23.05.2021 04:14 9,2 C 8,3 C 7,3 C 97 % 1010,0 hPa 0,0 l/m 0 min 0 min 0 W/m 6,4 km/h (2 Bft) 97,83 %
23.05.2021 04:16 9,2 C 8,3 C 7,3 C 97 % 1010,0 hPa 0,0 l/m 0 min 0 min 0 W/m 6,4 km/h (2 Bft) 97,87 %
23.05.2021 04:18 9,1 C 8,3 C 7,3 C 97 % 1010,1 hPa 0,0 l/m 0 min 0 min 0 W/m 6,4 km/h (2 Bft) 97,87 %
23.05.2021 04:20 9,1 C 8,3 C 7,3 C 97 % 1010,1 hPa 0,0 l/m 0 min 0 min 0 W/m 6,4 km/h (2 Bft) 97,87 %
23.05.2021 04:22 9,1 C 8,3 C 7,3 C 97 % 1010,0 hPa 0,0 l/m 0 min 0 min 0 W/m 9,7 km/h (2 Bft) 97,87 %
23.05.2021 04:24 9,1 C 8,3 C 7,3 C 97 % 1010,1 hPa 0,0 l/m 0 min 2 min 0 W/m 3,2 km/h (1 Bft) 95,74 %
23.05.2021 04:26 9,1 C 8,3 C 7,3 C 97 % 1010,1 hPa 0,0 l/m 0 min 0 min 0 W/m 6,4 km/h (2 Bft) 95,65 %
23.05.2021 04:28 9,1 C 8,3 C 7,3 C 97 % 1010,1 hPa 0,0 l/m 0 min 0 min 0 W/m 9,7 km/h (2 Bft) 97,87 %
23.05.2021 04:30 9,2 C 8,3 C 7,3 C 97 % 1010,1 hPa 0,0 l/m 0 min 0 min 0 W/m 6,4 km/h (2 Bft) 97,87 %
23.05.2021 04:32 9,1 C 8,3 C 7,3 C 97 % 1010,1 hPa 0,0 l/m 0 min 2 min 0 W/m 6,4 km/h (2 Bft) 94,29 %
23.05.2021 04:34 9,1 C 8,3 C 7,3 C 97 % 1010,1 hPa 0,0 l/m 0 min 2 min 0 W/m 6,4 km/h (2 Bft) 97,87 %
23.05.2021 04:36 9,2 C 8,3 C 7,3 C 97 % 1010,1 hPa 0,0 l/m 0 min 0 min 0 W/m 3,2 km/h (1 Bft) 97,87 %
23.05.2021 04:38 9,1 C 8,3 C 7,3 C 97 % 1010,1 hPa 0,0 l/m 0 min 0 min 0 W/m 6,4 km/h (2 Bft) 97,87 %
23.05.2021 04:40 9,1 C 8,3 C 7,3 C 97 % 1010,1 hPa 0,0 l/m 0 min 0 min 0 W/m 9,7 km/h (2 Bft) 97,83 %
23.05.2021 04:42 9,1 C 8,3 C 7,3 C 97 % 1010,1 hPa 0,0 l/m 0 min 2 min 0 W/m 3,2 km/h (1 Bft) 97,87 %
23.05.2021 04:44 9,1 C 8,3 C 7,3 C 97 % 1010,1 hPa 0,0 l/m 0 min 2 min 0 W/m 3,2 km/h (1 Bft) 97,87 %
23.05.2021 04:46 9,2 C 8,3 C 7,3 C 97 % 1010,2 hPa 0,0 l/m 0 min 0 min 0 W/m 6,4 km/h (2 Bft) 97,87 %
23.05.2021 04:48 9,2 C 8,3 C 7,3 C 97 % 1010,2 hPa 0,0 l/m 0 min 0 min 0 W/m 6,4 km/h (2 Bft) 95,74 %
23.05.2021 04:50 9,2 C 8,3 C 7,3 C 97 % 1010,2 hPa 0,0 l/m 0 min 0 min 0 W/m 6,4 km/h (2 Bft) 95,74 %
23.05.2021 04:52 9,2 C 8,3 C 7,3 C 98 % 1010,2 hPa 0,0 l/m 0 min 0 min 0 W/m 6,4 km/h (2 Bft) 97,87 %
23.05.2021 04:54 9,2 C 8,3 C 7,3 C 98 % 1010,3 hPa 0,0 l/m 0 min 0 min 0 W/m 6,4 km/h (2 Bft) 97,83 %
23.05.2021 04:56 9,2 C 8,3 C 7,3 C 98 % 1010,3 hPa 0,0 l/m 0 min 0 min 0 W/m 12,9 km/h (3 Bft) 97,87 %
23.05.2021 04:58 9,2 C 8,3 C 7,3 C 98 % 1010,3 hPa 0,0 l/m 0 min 0 min 0 W/m 6,4 km/h (2 Bft) 97,87 %
23.05.2021 05:00 9,2 C 8,3 C 7,3 C 98 % 1010,3 hPa 0,0 l/m 0 min 0 min 0 W/m 12,9 km/h (3 Bft) 95,74 %
23.05.2021 05:02 9,2 C 8,3 C 7,3 C 98 % 1010,3 hPa 0,0 l/m 0 min 0 min 0 W/m 9,7 km/h (2 Bft) 100,00 %
23.05.2021 05:04 9,2 C 8,3 C 7,3 C 98 % 1010,4 hPa 0,0 l/m 0 min 0 min 0 W/m 6,4 km/h (2 Bft) 100,00 %
23.05.2021 05:06 9,2 C 8,3 C 7,3 C 98 % 1010,3 hPa 0,0 l/m 0 min 0 min 0 W/m 6,4 km/h (2 Bft) 97,87 %
23.05.2021 05:08 9,2 C 8,3 C 7,3 C 98 % 1010,4 hPa 0,0 l/m 0 min 0 min 0 W/m 3,2 km/h (1 Bft) 95,74 %
23.05.2021 05:10 9,2 C 8,3 C 7,3 C 98 % 1010,4 hPa 0,0 l/m 0 min 0 min 0 W/m 3,2 km/h (1 Bft) 95,74 %
23.05.2021 05:12 9,2 C 8,3 C 7,3 C 98 % 1010,4 hPa 0,0 l/m 0 min 0 min 0 W/m 6,4 km/h (2 Bft) 93,62 %
23.05.2021 05:14 9,2 C 8,3 C 7,3 C 98 % 1010,4 hPa 0,0 l/m 0 min 0 min 0 W/m 16,1 km/h (3 Bft) 93,62 %
23.05.2021 05:16 9,2 C 8,3 C 7,3 C 98 % 1010,4 hPa 0,0 l/m 0 min 0 min 0 W/m 6,4 km/h (2 Bft) 91,30 %
23.05.2021 05:18 9,2 C 8,3 C 7,3 C 98 % 1010,4 hPa 0,0 l/m 0 min 2 min 0 W/m 22,5 km/h (4 Bft) 93,62 %
23.05.2021 05:20 9,2 C 8,3 C 7,3 C 98 % 1010,4 hPa 0,0 l/m 0 min 2 min 0 W/m 12,9 km/h (3 Bft) 93,62 %
23.05.2021 05:22 9,2 C 8,3 C 7,3 C 98 % 1010,5 hPa 0,2 l/m 0 min 2 min 0 W/m 12,9 km/h (3 Bft) 91,49 %
23.05.2021 05:24 9,2 C 8,3 C 7,3 C 98 % 1010,5 hPa 0,0 l/m 0 min 2 min 0 W/m 12,9 km/h (3 Bft) 95,74 %
23.05.2021 05:26 9,2 C 8,3 C 7,3 C 98 % 1010,5 hPa 0,0 l/m 0 min 0 min 0 W/m 12,9 km/h (3 Bft) 93,62 %
23.05.2021 05:28 9,2 C 8,3 C 7,3 C 98 % 1010,6 hPa 0,0 l/m 0 min 0 min 0 W/m 9,7 km/h (2 Bft) 93,48 %
23.05.2021 05:30 9,2 C 8,3 C 7,3 C 98 % 1010,6 hPa 0,0 l/m 0 min 0 min 0 W/m 6,4 km/h (2 Bft) 93,62 %
23.05.2021 05:32 9,2 C 8,3 C 7,3 C 98 % 1010,7 hPa 0,0 l/m 0 min 0 min 0 W/m 12,9 km/h (3 Bft) 93,62 %
23.05.2021 05:34 9,2 C 8,3 C 7,3 C 98 % 1010,7 hPa 0,0 l/m 0 min 0 min 0 W/m 3,2 km/h (1 Bft) 93,62 %
23.05.2021 05:36 9,3 C 8,3 C 7,8 C 98 % 1010,7 hPa 0,0 l/m 0 min 0 min 0 W/m 9,7 km/h (2 Bft) 93,62 %
23.05.2021 05:38 9,3 C 8,3 C 7,3 C 98 % 1010,7 hPa 0,0 l/m 0 min 0 min 0 W/m 3,2 km/h (1 Bft) 93,62 %
23.05.2021 05:40 9,3 C 8,3 C 7,8 C 98 % 1010,7 hPa 0,0 l/m 0 min 0 min 0 W/m 6,4 km/h (2 Bft) 89,13 %
23.05.2021 05:42 9,3 C 8,3 C 7,8 C 98 % 1010,7 hPa 0,0 l/m 0 min 0 min 0 W/m 6,4 km/h (2 Bft) 93,62 %
23.05.2021 05:44 9,3 C 8,9 C 7,8 C 98 % 1010,7 hPa 0,0 l/m 0 min 0 min 0 W/m 6,4 km/h (2 Bft) 93,62 %
23.05.2021 05:46 9,3 C 8,9 C 7,8 C 98 % 1010,8 hPa 0,0 l/m 0 min 0 min 0 W/m 9,7 km/h (2 Bft) 89,36 %
23.05.2021 05:48 9,3 C 8,9 C 7,8 C 98 % 1010,8 hPa 0,0 l/m 0 min 0 min 0 W/m 6,4 km/h (2 Bft) 91,49 %
23.05.2021 05:50 9,3 C 8,9 C 7,8 C 98 % 1010,8 hPa 0,0 l/m 0 min 0 min 3 W/m 6,4 km/h (2 Bft) 95,74 %
23.05.2021 05:52 9,3 C 8,9 C 7,8 C 98 % 1010,7 hPa 0,0 l/m 0 min 0 min 5 W/m 3,2 km/h (1 Bft) 95,65 %
23.05.2021 05:54 9,3 C 8,9 C 7,8 C 98 % 1010,8 hPa 0,0 l/m 0 min 0 min 5 W/m 9,7 km/h (2 Bft) 95,74 %
23.05.2021 05:56 9,3 C 8,9 C 7,8 C 98 % 1010,8 hPa 0,0 l/m 0 min 0 min 2 W/m 9,7 km/h (2 Bft) 95,74 %
23.05.2021 05:58 9,4 C 8,9 C 7,8 C 98 % 1010,9 hPa 0,0 l/m 0 min 0 min 0 W/m 6,4 km/h (2 Bft) 93,62 %
23.05.2021 06:00 9,4 C 8,9 C 7,8 C 98 % 1010,9 hPa 0,0 l/m 0 min 0 min 2 W/m 12,9 km/h (3 Bft) 95,74 %
23.05.2021 06:02 9,4 C 8,9 C 7,8 C 98 % 1010,9 hPa 0,0 l/m 0 min 0 min 7 W/m 12,9 km/h (3 Bft) 95,65 %
23.05.2021 06:04 9,4 C 8,9 C 7,8 C 98 % 1010,9 hPa 0,0 l/m 0 min 0 min 9 W/m 6,4 km/h (2 Bft) 100,00 %
23.05.2021 06:08 9,4 C 8,9 C 7,8 C 98 % 1011,0 hPa 0,0 l/m 0 min 0 min 11 W/m 16,1 km/h (3 Bft) 100,00 %
23.05.2021 06:10 9,4 C 8,9 C 7,8 C 98 % 1011,0 hPa 0,0 l/m 0 min 0 min 10 W/m 9,7 km/h (2 Bft) 100,00 %
23.05.2021 06:12 9,4 C 8,9 C 7,8 C 98 % 1011,0 hPa 0,0 l/m 0 min 0 min 9 W/m 6,4 km/h (2 Bft) 95,74 %
23.05.2021 06:14 9,4 C 8,9 C 7,8 C 98 % 1011,0 hPa 0,0 l/m 0 min 0 min 7 W/m 3,2 km/h (1 Bft) 97,87 %
23.05.2021 06:16 9,4 C 8,9 C 7,8 C 98 % 1011,1 hPa 0,0 l/m 0 min 0 min 5 W/m 9,7 km/h (2 Bft) 100,00 %
23.05.2021 06:18 9,4 C 8,9 C 7,8 C 98 % 1011,1 hPa 0,0 l/m 0 min 0 min 5 W/m 6,4 km/h (2 Bft) 100,00 %
23.05.2021 06:20 9,4 C 8,9 C 7,8 C 98 % 1011,1 hPa 0,0 l/m 0 min 0 min 6 W/m 6,4 km/h (2 Bft) 97,92 %
23.05.2021 06:22 9,4 C 8,9 C 7,8 C 98 % 1011,1 hPa 0,0 l/m 0 min 0 min 8 W/m 6,4 km/h (2 Bft) 97,87 %
23.05.2021 06:24 9,4 C 8,9 C 7,8 C 98 % 1011,2 hPa 0,0 l/m 0 min 0 min 11 W/m 9,7 km/h (2 Bft) 100,00 %
23.05.2021 06:26 9,4 C 8,9 C 7,8 C 98 % 1011,1 hPa 0,0 l/m 0 min 0 min 12 W/m 9,7 km/h (2 Bft) 57,45 %
23.05.2021 06:28 9,4 C 8,9 C 7,8 C 98 % 1011,2 hPa 0,0 l/m 0 min 0 min 12 W/m 9,7 km/h (2 Bft) 100,00 %
23.05.2021 06:30 9,4 C 8,9 C 7,8 C 98 % 1011,2 hPa 0,0 l/m 0 min 0 min 9 W/m 16,1 km/h (3 Bft) 100,00 %
23.05.2021 06:32 9,4 C 8,9 C 7,8 C 98 % 1011,2 hPa 0,0 l/m 0 min 0 min 9 W/m 9,7 km/h (2 Bft) 97,92 %
23.05.2021 06:34 9,4 C 8,9 C 7,8 C 98 % 1011,3 hPa 0,0 l/m 0 min 2 min 11 W/m 19,3 km/h (3 Bft) 100,00 %
23.05.2021 06:36 9,4 C 8,9 C 7,8 C 98 % 1011,2 hPa 0,0 l/m 0 min 2 min 11 W/m 12,9 km/h (3 Bft) 100,00 %
23.05.2021 06:38 9,4 C 8,9 C 7,8 C 98 % 1011,3 hPa 0,2 l/m 0 min 2 min 10 W/m 9,7 km/h (2 Bft) 100,00 %
23.05.2021 06:40 9,4 C 8,9 C 7,8 C 98 % 1011,3 hPa 0,0 l/m 0 min 2 min 6 W/m 16,1 km/h (3 Bft) 97,87 %
23.05.2021 06:42 9,4 C 8,9 C 7,8 C 98 % 1011,3 hPa 0,0 l/m 0 min 2 min 7 W/m 9,7 km/h (2 Bft) 100,00 %
23.05.2021 06:44 9,4 C 8,9 C 7,8 C 98 % 1011,4 hPa 0,0 l/m 0 min 0 min 10 W/m 16,1 km/h (3 Bft) 100,00 %
23.05.2021 06:46 9,4 C 8,9 C 7,8 C 98 % 1011,4 hPa 0,0 l/m 0 min 0 min 12 W/m 19,3 km/h (3 Bft) 100,00 %
23.05.2021 06:48 9,4 C 8,9 C 7,8 C 98 % 1011,4 hPa 0,0 l/m 0 min 0 min 12 W/m 16,1 km/h (3 Bft) 100,00 %
23.05.2021 06:50 9,4 C 8,9 C 7,8 C 98 % 1011,4 hPa 0,0 l/m 0 min 0 min 13 W/m 12,9 km/h (3 Bft) 100,00 %
23.05.2021 06:52 9,4 C 8,9 C 7,8 C 98 % 1011,5 hPa 0,0 l/m 0 min 0 min 15 W/m 9,7 km/h (2 Bft) 100,00 %
23.05.2021 06:54 9,4 C 8,9 C 7,8 C 98 % 1011,5 hPa 0,0 l/m 0 min 0 min 13 W/m 12,9 km/h (3 Bft) 100,00 %
23.05.2021 06:56 9,4 C 8,9 C 7,8 C 98 % 1011,5 hPa 0,0 l/m 0 min 0 min 13 W/m 12,9 km/h (3 Bft) 100,00 %
23.05.2021 06:58 9,4 C 8,9 C 7,8 C 98 % 1011,5 hPa 0,0 l/m 0 min 0 min 15 W/m 19,3 km/h (3 Bft) 100,00 %
23.05.2021 07:00 9,4 C 8,9 C 7,8 C 98 % 1011,6 hPa 0,0 l/m 0 min 0 min 14 W/m 19,3 km/h (3 Bft) 100,00 %
23.05.2021 07:02 9,4 C 8,9 C 7,8 C 98 % 1011,6 hPa 0,0 l/m 0 min 0 min 17 W/m 16,1 km/h (3 Bft) 100,00 %
23.05.2021 07:04 9,4 C 8,9 C 7,8 C 98 % 1011,6 hPa 0,0 l/m 0 min 0 min 18 W/m 12,9 km/h (3 Bft) 97,87 %
23.05.2021 07:06 9,4 C 8,9 C 7,8 C 98 % 1011,6 hPa 0,0 l/m 0 min 0 min 17 W/m 29,0 km/h (5 Bft) 100,00 %
23.05.2021 07:08 9,4 C 8,9 C 7,8 C 98 % 1011,7 hPa 0,0 l/m 0 min 0 min 14 W/m 12,9 km/h (3 Bft) 100,00 %
23.05.2021 07:10 9,4 C 8,9 C 7,8 C 98 % 1011,8 hPa 0,0 l/m 0 min 0 min 14 W/m 19,3 km/h (3 Bft) 100,00 %
23.05.2021 07:12 9,4 C 8,9 C 7,8 C 98 % 1011,8 hPa 0,0 l/m 0 min 0 min 15 W/m 22,5 km/h (4 Bft) 100,00 %
23.05.2021 07:14 9,4 C 8,9 C 7,8 C 98 % 1011,8 hPa 0,0 l/m 0 min 0 min 15 W/m 25,7 km/h (4 Bft) 100,00 %
23.05.2021 07:16 9,4 C 8,9 C 7,8 C 98 % 1011,8 hPa 0,0 l/m 0 min 0 min 17 W/m 16,1 km/h (3 Bft) 100,00 %
23.05.2021 07:18 9,4 C 8,9 C 7,8 C 98 % 1011,8 hPa 0,0 l/m 0 min 0 min 20 W/m 19,3 km/h (3 Bft) 100,00 %
23.05.2021 07:20 9,4 C 8,9 C 7,8 C 98 % 1011,8 hPa 0,0 l/m 0 min 0 min 22 W/m 16,1 km/h (3 Bft) 100,00 %
23.05.2021 07:22 9,4 C 8,9 C 7,8 C 98 % 1011,9 hPa 0,0 l/m 0 min 0 min 25 W/m 16,1 km/h (3 Bft) 97,87 %
23.05.2021 07:24 9,4 C 8,9 C 7,8 C 98 % 1011,9 hPa 0,0 l/m 0 min 0 min 28 W/m 22,5 km/h (4 Bft) 100,00 %
23.05.2021 07:26 9,4 C 8,9 C 7,8 C 98 % 1011,9 hPa 0,0 l/m 0 min 0 min 30 W/m 19,3 km/h (3 Bft) 97,87 %
23.05.2021 07:28 9,4 C 8,9 C 7,8 C 98 % 1012,0 hPa 0,0 l/m 0 min 0 min 35 W/m 19,3 km/h (3 Bft) 100,00 %
23.05.2021 07:30 9,4 C 8,9 C 7,8 C 98 % 1011,9 hPa 0,0 l/m 0 min 0 min 43 W/m 19,3 km/h (3 Bft) 100,00 %
23.05.2021 07:32 9,4 C 8,9 C 7,8 C 98 % 1011,9 hPa 0,0 l/m 0 min 0 min 46 W/m 12,9 km/h (3 Bft) 100,00 %
23.05.2021 07:34 9,4 C 8,9 C 7,8 C 98 % 1012,0 hPa 0,0 l/m 0 min 0 min 39 W/m 16,1 km/h (3 Bft) 100,00 %
23.05.2021 07:36 9,4 C 8,9 C 7,8 C 98 % 1012,0 hPa 0,0 l/m 0 min 0 min 40 W/m 38,6 km/h (5 Bft) 97,87 %
23.05.2021 07:38 9,3 C 8,9 C 7,8 C 98 % 1012,0 hPa 0,0 l/m 0 min 0 min 41 W/m 38,6 km/h (5 Bft) 100,00 %
23.05.2021 07:40 9,3 C 8,9 C 7,3 C 98 % 1012,1 hPa 0,0 l/m 0 min 0 min 40 W/m 25,7 km/h (4 Bft) 100,00 %
23.05.2021 07:42 9,3 C 8,9 C 7,3 C 98 % 1012,1 hPa 0,0 l/m 0 min 0 min 42 W/m 19,3 km/h (3 Bft) 100,00 %
23.05.2021 07:44 9,3 C 8,9 C 7,3 C 97 % 1012,0 hPa 0,0 l/m 0 min 0 min 46 W/m 12,9 km/h (3 Bft) 100,00 %
23.05.2021 07:46 9,3 C 8,9 C 7,3 C 97 % 1012,1 hPa 0,0 l/m 0 min 0 min 50 W/m 19,3 km/h (3 Bft) 95,74 %
23.05.2021 07:48 9,3 C 8,9 C 7,3 C 97 % 1012,1 hPa 0,0 l/m 0 min 0 min 56 W/m 16,1 km/h (3 Bft) 97,87 %
23.05.2021 07:50 9,3 C 8,9 C 7,3 C 97 % 1012,1 hPa 0,0 l/m 0 min 0 min 58 W/m 16,1 km/h (3 Bft) 97,87 %
23.05.2021 07:52 9,3 C 8,9 C 7,8 C 97 % 1012,2 hPa 0,0 l/m 0 min 0 min 65 W/m 16,1 km/h (3 Bft) 95,65 %
23.05.2021 07:54 9,3 C 8,9 C 7,8 C 97 % 1012,1 hPa 0,0 l/m 0 min 0 min 67 W/m 19,3 km/h (3 Bft) 97,87 %
23.05.2021 07:56 9,3 C 8,9 C 7,8 C 97 % 1012,1 hPa 0,0 l/m 0 min 0 min 71 W/m 19,3 km/h (3 Bft) 93,62 %
23.05.2021 07:58 9,3 C 8,9 C 7,8 C 97 % 1012,2 hPa 0,0 l/m 0 min 0 min 84 W/m 12,9 km/h (3 Bft) 97,87 %
23.05.2021 08:00 9,3 C 8,9 C 7,8 C 97 % 1012,2 hPa 0,0 l/m 0 min 0 min 86 W/m 19,3 km/h (3 Bft) 97,87 %
23.05.2021 08:02 9,3 C 8,9 C 7,8 C 97 % 1012,3 hPa 0,0 l/m 0 min 0 min 87 W/m 19,3 km/h (3 Bft) 97,87 %
23.05.2021 08:04 9,3 C 8,9 C 7,8 C 96 % 1012,3 hPa 0,0 l/m 0 min 0 min 93 W/m 25,7 km/h (4 Bft) 95,65 %
23.05.2021 08:06 9,3 C 8,9 C 7,8 C 96 % 1012,3 hPa 0,0 l/m 0 min 0 min 100 W/m 16,1 km/h (3 Bft) 95,74 %
23.05.2021 08:08 9,4 C 9,4 C 7,8 C 96 % 1012,3 hPa 0,0 l/m 0 min 0 min 101 W/m 22,5 km/h (4 Bft) 97,87 %
23.05.2021 08:10 9,4 C 8,9 C 7,8 C 96 % 1012,4 hPa 0,0 l/m 0 min 0 min 91 W/m 22,5 km/h (4 Bft) 97,87 %
23.05.2021 08:12 9,4 C 8,9 C 7,8 C 96 % 1012,3 hPa 0,0 l/m 0 min 0 min 77 W/m 16,1 km/h (3 Bft) 97,87 %
23.05.2021 08:14 9,4 C 8,9 C 7,8 C 96 % 1012,3 hPa 0,0 l/m 0 min 0 min 80 W/m 19,3 km/h (3 Bft) 97,87 %
23.05.2021 08:16 9,4 C 8,9 C 7,8 C 96 % 1012,3 hPa 0,0 l/m 0 min 0 min 91 W/m 19,3 km/h (3 Bft) 95,65 %
23.05.2021 08:18 9,4 C 9,4 C 7,8 C 96 % 1012,3 hPa 0,0 l/m 0 min 0 min 90 W/m 12,9 km/h (3 Bft) 95,74 %
23.05.2021 08:20 9,4 C 8,9 C 7,8 C 96 % 1012,4 hPa 0,0 l/m 0 min 0 min 82 W/m 22,5 km/h (4 Bft) 95,74 %
23.05.2021 08:22 9,4 C 8,9 C 7,8 C 96 % 1012,3 hPa 0,0 l/m 0 min 0 min 91 W/m 22,5 km/h (4 Bft) 95,74 %
23.05.2021 08:24 9,4 C 9,4 C 7,8 C 96 % 1012,4 hPa 0,0 l/m 0 min 0 min 105 W/m 22,5 km/h (4 Bft) 93,62 %
23.05.2021 08:26 9,4 C 9,4 C 7,8 C 96 % 1012,5 hPa 0,0 l/m 0 min 0 min 110 W/m 25,7 km/h (4 Bft) 93,62 %
23.05.2021 08:28 9,4 C 9,4 C 7,8 C 96 % 1012,5 hPa 0,0 l/m 0 min 0 min 101 W/m 25,7 km/h (4 Bft) 97,83 %
23.05.2021 08:30 9,4 C 9,4 C 7,8 C 96 % 1012,6 hPa 0,0 l/m 0 min 0 min 97 W/m 22,5 km/h (4 Bft) 95,74 %
23.05.2021 08:32 9,4 C 9,4 C 7,8 C 96 % 1012,5 hPa 0,0 l/m 0 min 0 min 101 W/m 16,1 km/h (3 Bft) 97,87 %
23.05.2021 08:34 9,4 C 9,4 C 7,8 C 96 % 1012,5 hPa 0,0 l/m 0 min 0 min 113 W/m 12,9 km/h (3 Bft) 97,87 %
23.05.2021 08:36 9,4 C 9,4 C 7,8 C 95 % 1012,6 hPa 0,0 l/m 0 min 0 min 114 W/m 35,4 km/h (5 Bft) 97,87 %
23.05.2021 08:38 9,4 C 9,4 C 7,3 C 95 % 1012,6 hPa 0,0 l/m 0 min 0 min 102 W/m 29,0 km/h (5 Bft) 97,87 %
23.05.2021 08:40 9,3 C 9,4 C 7,3 C 95 % 1012,7 hPa 0,0 l/m 0 min 0 min 122 W/m 29,0 km/h (5 Bft) 97,83 %
23.05.2021 08:42 9,3 C 9,4 C 7,8 C 95 % 1012,6 hPa 0,0 l/m 0 min 0 min 156 W/m 25,7 km/h (4 Bft) 95,74 %
23.05.2021 08:44 9,4 C 10,0 C 7,8 C 95 % 1012,7 hPa 0,0 l/m 0 min 0 min 155 W/m 32,2 km/h (5 Bft) 97,87 %
23.05.2021 08:46 9,4 C 11,1 C 8,4 C 95 % 1012,7 hPa 0,0 l/m 0 min 0 min 155 W/m 25,7 km/h (4 Bft) 97,87 %
23.05.2021 08:48 9,5 C 11,7 C 8,4 C 95 % 1012,8 hPa 0,0 l/m 2 min 0 min 407 W/m 16,1 km/h (3 Bft) 95,74 %
23.05.2021 08:50 9,6 C 12,2 C 8,9 C 95 % 1012,8 hPa 0,0 l/m 2 min 0 min 485 W/m 32,2 km/h (5 Bft) 97,87 %
23.05.2021 08:52 9,8 C 12,8 C 8,9 C 95 % 1012,9 hPa 0,0 l/m 2 min 0 min 490 W/m 25,7 km/h (4 Bft) 97,83 %
23.05.2021 08:54 9,9 C 13,9 C 9,5 C 94 % 1012,9 hPa 0,0 l/m 2 min 0 min 487 W/m 12,9 km/h (3 Bft) 97,87 %
23.05.2021 08:56 10,0 C 13,9 C 9,5 C 94 % 1012,9 hPa 0,0 l/m 2 min 0 min 487 W/m 29,0 km/h (5 Bft) 97,87 %
23.05.2021 08:58 10,1 C 12,8 C 9,5 C 94 % 1012,9 hPa 0,0 l/m 2 min 0 min 506 W/m 19,3 km/h (3 Bft) 97,87 %
23.05.2021 09:00 10,2 C 12,8 C 8,9 C 92 % 1012,9 hPa 0,0 l/m 2 min 0 min 506 W/m 22,5 km/h (4 Bft) 97,87 %
23.05.2021 09:02 10,3 C 13,3 C 9,5 C 91 % 1012,9 hPa 0,0 l/m 2 min 0 min 508 W/m 19,3 km/h (3 Bft) 95,74 %
23.05.2021 09:04 10,4 C 14,4 C 9,5 C 91 % 1012,9 hPa 0,0 l/m 2 min 0 min 515 W/m 19,3 km/h (3 Bft) 93,62 %
23.05.2021 09:06 10,5 C 15,0 C 10,0 C 90 % 1013,0 hPa 0,0 l/m 2 min 0 min 518 W/m 29,0 km/h (5 Bft) 100,00 %
23.05.2021 09:08 10,7 C 15,6 C 10,0 C 90 % 1013,0 hPa 0,0 l/m 2 min 0 min 523 W/m 19,3 km/h (3 Bft) 100,00 %
23.05.2021 09:10 10,8 C 15,0 C 10,0 C 89 % 1013,0 hPa 0,0 l/m 2 min 0 min 538 W/m 19,3 km/h (3 Bft) 97,87 %
23.05.2021 09:12 10,9 C 14,4 C 10,0 C 88 % 1013,1 hPa 0,0 l/m 2 min 0 min 584 W/m 25,7 km/h (4 Bft) 100,00 %
23.05.2021 09:14 11,0 C 14,4 C 10,0 C 87 % 1013,1 hPa 0,0 l/m 2 min 0 min 577 W/m 25,7 km/h (4 Bft) 100,00 %
23.05.2021 09:16 11,0 C 14,4 C 10,0 C 86 % 1013,1 hPa 0,0 l/m 2 min 0 min 577 W/m 35,4 km/h (5 Bft) 100,00 %
23.05.2021 09:18 11,1 C 15,0 C 10,6 C 86 % 1013,0 hPa 0,0 l/m 2 min 0 min 613 W/m 12,9 km/h (3 Bft) 100,00 %
23.05.2021 09:20 11,2 C 15,0 C 10,6 C 86 % 1013,1 hPa 0,0 l/m 2 min 0 min 631 W/m 22,5 km/h (4 Bft) 100,00 %
23.05.2021 09:22 11,3 C 15,0 C 10,6 C 85 % 1013,0 hPa 0,0 l/m 2 min 0 min 612 W/m 16,1 km/h (3 Bft) 97,87 %
23.05.2021 09:24 11,4 C 15,0 C 10,6 C 85 % 1013,1 hPa 0,0 l/m 2 min 0 min 603 W/m 16,1 km/h (3 Bft) 100,00 %
23.05.2021 09:26 11,4 C 14,4 C 10,6 C 85 % 1013,1 hPa 0,0 l/m 2 min 0 min 536 W/m 12,9 km/h (3 Bft) 100,00 %
23.05.2021 09:28 11,5 C 13,9 C 10,0 C 84 % 1013,2 hPa 0,0 l/m 0 min 0 min 132 W/m 19,3 km/h (3 Bft) 100,00 %
23.05.2021 09:30 11,4 C 12,8 C 9,5 C 83 % 1013,2 hPa 0,0 l/m 0 min 0 min 113 W/m 22,5 km/h (4 Bft) 100,00 %
23.05.2021 09:32 11,4 C 13,3 C 10,0 C 83 % 1013,1 hPa 0,0 l/m 2 min 0 min 425 W/m 19,3 km/h (3 Bft) 100,00 %
23.05.2021 09:34 11,4 C 13,3 C 10,0 C 82 % 1013,1 hPa 0,0 l/m 2 min 0 min 571 W/m 22,5 km/h (4 Bft) 100,00 %
23.05.2021 09:36 11,4 C 13,9 C 10,6 C 83 % 1013,1 hPa 0,0 l/m 2 min 0 min 525 W/m 16,1 km/h (3 Bft) 100,00 %
23.05.2021 09:38 11,5 C 13,3 C 10,6 C 83 % 1013,1 hPa 0,0 l/m 2 min 0 min 347 W/m 12,9 km/h (3 Bft) 97,87 %
23.05.2021 09:40 11,5 C 13,9 C 11,1 C 82 % 1013,2 hPa 0,0 l/m 2 min 0 min 515 W/m 22,5 km/h (4 Bft) 100,00 %
23.05.2021 09:42 11,5 C 13,9 C 10,6 C 80 % 1013,2 hPa 0,0 l/m 2 min 0 min 642 W/m 32,2 km/h (5 Bft) 100,00 %
23.05.2021 09:44 11,5 C 13,9 C 11,1 C 79 % 1013,2 hPa 0,0 l/m 2 min 0 min 642 W/m 35,4 km/h (5 Bft) 100,00 %
23.05.2021 09:46 11,7 C 14,4 C 11,7 C 79 % 1013,1 hPa 0,0 l/m 2 min 0 min 660 W/m 19,3 km/h (3 Bft) 100,00 %
23.05.2021 09:48 11,8 C 14,4 C 11,7 C 79 % 1013,2 hPa 0,0 l/m 2 min 0 min 668 W/m 22,5 km/h (4 Bft) 100,00 %
23.05.2021 09:50 11,9 C 13,9 C 11,7 C 79 % 1013,2 hPa 0,0 l/m 2 min 0 min 673 W/m 16,1 km/h (3 Bft) 100,00 %
23.05.2021 09:52 11,9 C 15,0 C 13,4 C 79 % 1013,3 hPa 0,0 l/m 2 min 0 min 690 W/m 16,1 km/h (3 Bft) 100,00 %
23.05.2021 09:54 12,1 C 15,6 C 14,5 C 78 % 1013,3 hPa 0,0 l/m 2 min 0 min 700 W/m 16,1 km/h (3 Bft) 100,00 %
23.05.2021 09:56 12,1 C 15,6 C 15,0 C 77 % 1013,3 hPa 0,0 l/m 2 min 0 min 708 W/m 41,8 km/h (6 Bft) 97,83 %
23.05.2021 09:58 12,2 C 15,6 C 15,0 C 76 % 1013,4 hPa 0,0 l/m 2 min 0 min 742 W/m 32,2 km/h (5 Bft) 100,00 %
23.05.2021 10:00 12,3 C 15,6 C 15,6 C 77 % 1013,4 hPa 0,0 l/m 2 min 0 min 716 W/m 25,7 km/h (4 Bft) 100,00 %
23.05.2021 10:02 12,4 C 15,0 C 15,0 C 75 % 1013,6 hPa 0,0 l/m 2 min 0 min 705 W/m 25,7 km/h (4 Bft) 100,00 %
23.05.2021 10:04 12,4 C 15,0 C 15,6 C 74 % 1013,4 hPa 0,0 l/m 2 min 0 min 761 W/m 25,7 km/h (4 Bft) 100,00 %
23.05.2021 10:06 12,4 C 14,4 C 13,4 C 74 % 1013,5 hPa 0,0 l/m 2 min 0 min 795 W/m 19,3 km/h (3 Bft) 100,00 %
23.05.2021 10:08 12,4 C 13,9 C 12,8 C 73 % 1013,6 hPa 0,0 l/m 2 min 0 min 795 W/m 29,0 km/h (5 Bft) 100,00 %
23.05.2021 10:10 12,3 C 13,9 C 13,9 C 74 % 1013,5 hPa 0,0 l/m 2 min 0 min 788 W/m 25,7 km/h (4 Bft) 100,00 %
23.05.2021 10:12 12,3 C 13,3 C 12,8 C 74 % 1013,6 hPa 0,0 l/m 2 min 0 min 452 W/m 25,7 km/h (4 Bft) 98,31 %
23.05.2021 10:14 12,2 C 13,3 C 12,8 C 73 % 1013,5 hPa 0,0 l/m 2 min 0 min 327 W/m 19,3 km/h (3 Bft) 100,00 %
23.05.2021 10:16 12,1 C 12,8 C 11,7 C 73 % 1013,6 hPa 0,0 l/m 0 min 0 min 187 W/m 19,3 km/h (3 Bft) 100,00 %
23.05.2021 10:18 12,0 C 12,8 C 12,3 C 74 % 1013,6 hPa 0,0 l/m 0 min 0 min 167 W/m 16,1 km/h (3 Bft) 100,00 %
23.05.2021 10:20 12,1 C 13,9 C 13,4 C 75 % 1013,6 hPa 0,0 l/m 2 min 0 min 773 W/m 29,0 km/h (5 Bft) 100,00 %
23.05.2021 10:22 12,1 C 13,9 C 14,5 C 75 % 1013,6 hPa 0,0 l/m 2 min 0 min 795 W/m 29,0 km/h (5 Bft) 100,00 %
23.05.2021 10:24 12,2 C 13,9 C 14,5 C 75 % 1013,5 hPa 0,0 l/m 2 min 0 min 833 W/m 29,0 km/h (5 Bft) 97,87 %
23.05.2021 10:26 12,3 C 13,9 C 13,9 C 75 % 1013,7 hPa 0,0 l/m 2 min 0 min 687 W/m 22,5 km/h (4 Bft) 98,31 %
23.05.2021 10:28 12,3 C 13,9 C 13,4 C 74 % 1013,8 hPa 0,0 l/m 0 min 0 min 229 W/m 29,0 km/h (5 Bft) 97,87 %
23.05.2021 10:30 12,3 C 13,3 C 13,9 C 74 % 1013,7 hPa 0,0 l/m 0 min 0 min 244 W/m 19,3 km/h (3 Bft) 100,00 %
23.05.2021 10:32 12,3 C 13,3 C 14,5 C 73 % 1013,9 hPa 0,0 l/m 2 min 0 min 387 W/m 22,5 km/h (4 Bft) 100,00 %
23.05.2021 10:34 12,4 C 13,3 C 14,5 C 73 % 1013,7 hPa 0,0 l/m 2 min 0 min 830 W/m 19,3 km/h (3 Bft) 97,14 %
23.05.2021 10:36 12,4 C 13,9 C 15,6 C 74 % 1013,7 hPa 0,0 l/m 2 min 0 min 834 W/m 19,3 km/h (3 Bft) 100,00 %
23.05.2021 10:38 12,6 C 13,9 C 15,0 C 74 % 1013,7 hPa 0,0 l/m 2 min 0 min 874 W/m 19,3 km/h (3 Bft) 100,00 %
23.05.2021 10:40 12,6 C 13,3 C 14,5 C 73 % 1013,8 hPa 0,0 l/m 0 min 0 min 276 W/m 12,9 km/h (3 Bft) 100,00 %
23.05.2021 10:42 12,6 C 13,3 C 13,4 C 72 % 1013,8 hPa 0,0 l/m 0 min 0 min 153 W/m 12,9 km/h (3 Bft) 56,52 %
23.05.2021 10:44 12,6 C 12,8 C 12,3 C 71 % 1013,9 hPa 0,0 l/m 0 min 0 min 178 W/m 22,5 km/h (4 Bft) 100,00 %
23.05.2021 10:46 12,5 C 12,8 C 11,7 C 71 % 1013,8 hPa 0,0 l/m 0 min 0 min 171 W/m 25,7 km/h (4 Bft) 97,87 %
23.05.2021 10:48 12,4 C 12,8 C 11,7 C 71 % 1013,8 hPa 0,0 l/m 0 min 0 min 182 W/m 22,5 km/h (4 Bft) 97,87 %
23.05.2021 10:50 12,5 C 13,3 C 12,3 C 71 % 1013,9 hPa 0,0 l/m 2 min 0 min 684 W/m 25,7 km/h (4 Bft) 97,87 %
23.05.2021 10:52 12,5 C 14,4 C 12,8 C 71 % 1014,0 hPa 0,0 l/m 2 min 0 min 882 W/m 19,3 km/h (3 Bft) 97,87 %
23.05.2021 10:54 12,8 C 15,0 C 13,4 C 72 % 1013,8 hPa 0,0 l/m 2 min 0 min 883 W/m 12,9 km/h (3 Bft) 97,14 %
23.05.2021 10:56 13,0 C 15,0 C 13,4 C 69 % 1014,1 hPa 0,0 l/m 2 min 0 min 823 W/m 25,7 km/h (4 Bft) 97,87 %
23.05.2021 10:58 13,1 C 14,4 C 12,8 C 69 % 1013,9 hPa 0,0 l/m 2 min 0 min 494 W/m 35,4 km/h (5 Bft) 97,83 %
23.05.2021 11:00 13,3 C 15,0 C 13,4 C 69 % 1013,7 hPa 0,0 l/m 2 min 0 min 494 W/m 29,0 km/h (5 Bft) 94,92 %
23.05.2021 11:02 13,4 C 15,0 C 13,9 C 69 % 1014,0 hPa 0,0 l/m 2 min 0 min 494 W/m 16,1 km/h (3 Bft) 97,14 %
23.05.2021 11:04 13,5 C 15,6 C 13,9 C 69 % 1014,0 hPa 0,0 l/m 2 min 0 min 494 W/m 25,7 km/h (4 Bft) 93,62 %
23.05.2021 11:06 13,7 C 15,6 C 13,9 C 68 % 1013,9 hPa 0,0 l/m 2 min 0 min 796 W/m 45,1 km/h (6 Bft) 91,53 %
23.05.2021 11:08 13,8 C 15,6 C 13,4 C 67 % 1014,1 hPa 0,0 l/m 2 min 0 min 444 W/m 41,8 km/h (6 Bft) 93,48 %
23.05.2021 11:10 13,9 C 15,6 C 13,4 C 67 % 1014,2 hPa 0,0 l/m 2 min 0 min 905 W/m 22,5 km/h (4 Bft) 97,87 %
23.05.2021 11:12 14,0 C 16,1 C 13,4 C 67 % 1014,0 hPa 0,0 l/m 2 min 0 min 967 W/m 19,3 km/h (3 Bft) 94,29 %
23.05.2021 11:14 13,9 C 15,0 C 12,8 C 65 % 1014,2 hPa 0,0 l/m 2 min 0 min 904 W/m 38,6 km/h (5 Bft) 96,61 %
23.05.2021 11:16 13,8 C 14,4 C 12,8 C 65 % 1014,0 hPa 0,0 l/m 0 min 0 min 314 W/m 25,7 km/h (4 Bft) 95,74 %
23.05.2021 11:18 13,6 C 13,9 C 11,7 C 66 % 1014,1 hPa 0,0 l/m 0 min 0 min 239 W/m 22,5 km/h (4 Bft) 95,65 %
23.05.2021 11:20 13,4 C 13,3 C 11,7 C 67 % 1014,3 hPa 0,0 l/m 0 min 0 min 245 W/m 19,3 km/h (3 Bft) 93,62 %
23.05.2021 11:22 13,3 C 13,3 C 11,1 C 68 % 1014,1 hPa 0,0 l/m 0 min 0 min 260 W/m 25,7 km/h (4 Bft) 93,62 %
23.05.2021 11:24 13,1 C 13,3 C 11,1 C 68 % 1014,1 hPa 0,0 l/m 0 min 0 min 256 W/m 19,3 km/h (3 Bft) 95,74 %
23.05.2021 11:26 13,1 C 13,3 C 11,1 C 69 % 1014,2 hPa 0,0 l/m 0 min 0 min 224 W/m 16,1 km/h (3 Bft) 95,74 %
23.05.2021 11:28 13,1 C 13,3 C 11,1 C 70 % 1014,2 hPa 0,0 l/m 0 min 0 min 196 W/m 16,1 km/h (3 Bft) 93,62 %
23.05.2021 11:30 13,0 C 12,8 C 10,6 C 68 % 1014,3 hPa 0,0 l/m 0 min 0 min 188 W/m 22,5 km/h (4 Bft) 95,74 %
23.05.2021 11:32 12,9 C 12,8 C 10,6 C 69 % 1014,3 hPa 0,0 l/m 0 min 0 min 181 W/m 29,0 km/h (5 Bft) 95,65 %
23.05.2021 11:34 12,8 C 12,8 C 10,6 C 68 % 1014,4 hPa 0,0 l/m 0 min 0 min 132 W/m 32,2 km/h (5 Bft) 95,74 %
23.05.2021 11:36 12,7 C 12,2 C 10,0 C 69 % 1014,4 hPa 0,0 l/m 0 min 0 min 121 W/m 16,1 km/h (3 Bft) 97,87 %
23.05.2021 11:38 12,6 C 12,2 C 10,0 C 69 % 1014,5 hPa 0,0 l/m 0 min 0 min 131 W/m 25,7 km/h (4 Bft) 95,74 %
23.05.2021 11:40 12,5 C 12,2 C 10,0 C 70 % 1014,4 hPa 0,0 l/m 0 min 0 min 176 W/m 16,1 km/h (3 Bft) 100,00 %
23.05.2021 11:42 12,5 C 12,2 C 10,6 C 70 % 1014,5 hPa 0,0 l/m 0 min 0 min 245 W/m 19,3 km/h (3 Bft) 97,83 %
23.05.2021 11:44 12,4 C 12,8 C 10,6 C 70 % 1014,6 hPa 0,0 l/m 0 min 0 min 304 W/m 25,7 km/h (4 Bft) 100,00 %
23.05.2021 11:46 12,5 C 13,3 C 12,3 C 70 % 1014,5 hPa 0,0 l/m 0 min 0 min 374 W/m 22,5 km/h (4 Bft) 97,87 %
23.05.2021 11:48 12,6 C 14,4 C 13,4 C 71 % 1014,4 hPa 0,0 l/m 2 min 0 min 977 W/m 22,5 km/h (4 Bft) 97,87 %
23.05.2021 11:50 12,9 C 15,0 C 14,5 C 70 % 1014,5 hPa 0,0 l/m 2 min 0 min 1003 W/m 25,7 km/h (4 Bft) 95,74 %
23.05.2021 11:52 13,1 C 16,1 C 14,5 C 68 % 1014,7 hPa 0,0 l/m 2 min 0 min 1093 W/m 25,7 km/h (4 Bft) 100,00 %
23.05.2021 11:54 13,5 C 16,7 C 15,6 C 67 % 1014,7 hPa 0,0 l/m 2 min 0 min 808 W/m 19,3 km/h (3 Bft) 97,83 %
23.05.2021 11:56 13,8 C 16,7 C 16,1 C 66 % 1014,5 hPa 0,2 l/m 2 min 0 min 810 W/m 29,0 km/h (5 Bft) 97,87 %
23.05.2021 11:58 14,0 C 16,1 C 16,1 C 67 % 1014,6 hPa 0,0 l/m 2 min 0 min 812 W/m 38,6 km/h (5 Bft) 97,87 %
23.05.2021 12:00 14,2 C 15,6 C 15,0 C 65 % 1014,5 hPa 0,0 l/m 2 min 0 min 990 W/m 29,0 km/h (5 Bft) 95,74 %
23.05.2021 12:02 14,0 C 14,4 C 13,9 C 64 % 1014,6 hPa 0,0 l/m 0 min 0 min 302 W/m 29,0 km/h (5 Bft) 97,87 %
23.05.2021 12:04 13,8 C 13,9 C 12,3 C 64 % 1014,6 hPa 0,0 l/m 0 min 0 min 270 W/m 38,6 km/h (5 Bft) 97,87 %
23.05.2021 12:08 13,5 C 13,3 C 11,7 C 66 % 1014,7 hPa 0,0 l/m 0 min 0 min 219 W/m 38,6 km/h (5 Bft) 97,85 %
23.05.2021 12:10 13,4 C 12,8 C 11,1 C 67 % 1014,7 hPa 0,0 l/m 0 min 0 min 236 W/m 29,0 km/h (5 Bft) 97,87 %
23.05.2021 12:12 13,3 C 12,8 C 11,1 C 67 % 1014,7 hPa 0,0 l/m 0 min 0 min 242 W/m 38,6 km/h (5 Bft) 97,87 %
23.05.2021 12:14 13,2 C 12,8 C 11,1 C 67 % 1014,8 hPa 0,0 l/m 0 min 0 min 204 W/m 25,7 km/h (4 Bft) 95,74 %
23.05.2021 12:16 13,1 C 12,8 C 10,6 C 68 % 1014,9 hPa 0,0 l/m 0 min 0 min 186 W/m 16,1 km/h (3 Bft) 100,00 %
23.05.2021 12:18 13,0 C 13,3 C 12,3 C 68 % 1014,9 hPa 0,0 l/m 0 min 0 min 187 W/m 19,3 km/h (3 Bft) 93,10 %
23.05.2021 12:20 13,1 C 14,4 C 16,1 C 69 % 1014,9 hPa 0,0 l/m 0 min 0 min 188 W/m 16,1 km/h (3 Bft) 97,87 %
23.05.2021 12:22 13,4 C 15,0 C 16,1 C 70 % 1014,9 hPa 0,0 l/m 0 min 0 min 188 W/m 16,1 km/h (3 Bft) 97,14 %
23.05.2021 12:24 13,4 C 14,4 C 15,0 C 68 % 1014,9 hPa 0,0 l/m 0 min 0 min 252 W/m 25,7 km/h (4 Bft) 98,31 %
23.05.2021 12:26 13,5 C 14,4 C 13,9 C 68 % 1014,8 hPa 0,0 l/m 0 min 0 min 209 W/m 16,1 km/h (3 Bft) 97,14 %
23.05.2021 12:28 13,5 C 14,4 C 15,0 C 69 % 1014,9 hPa 0,0 l/m 0 min 0 min 345 W/m 16,1 km/h (3 Bft) 96,55 %
23.05.2021 12:30 13,6 C 15,0 C 17,8 C 69 % 1014,8 hPa 0,0 l/m 2 min 0 min 990 W/m 29,0 km/h (5 Bft) 97,22 %
23.05.2021 12:32 13,8 C 15,6 C 20,0 C 69 % 1014,8 hPa 0,0 l/m 2 min 0 min 963 W/m 12,9 km/h (3 Bft) 96,55 %
23.05.2021 12:34 13,9 C 16,1 C 21,7 C 69 % 1014,9 hPa 0,0 l/m 2 min 0 min 980 W/m 19,3 km/h (3 Bft) 97,87 %
23.05.2021 12:36 14,2 C 16,7 C 22,8 C 68 % 1014,8 hPa 0,0 l/m 2 min 0 min 1011 W/m 19,3 km/h (3 Bft) 97,87 %
23.05.2021 12:38 14,2 C 16,7 C 22,8 C 67 % 1014,8 hPa 0,0 l/m 2 min 0 min 1077 W/m 19,3 km/h (3 Bft) 97,87 %
23.05.2021 12:40 14,5 C 17,2 C 23,4 C 69 % 1014,9 hPa 0,0 l/m 2 min 0 min 845 W/m 16,1 km/h (3 Bft) 97,87 %
23.05.2021 12:42 14,8 C 16,7 C 21,1 C 64 % 1014,8 hPa 0,0 l/m 2 min 0 min 846 W/m 41,8 km/h (6 Bft) 97,14 %
23.05.2021 12:44 14,7 C 16,1 C 18,4 C 63 % 1014,8 hPa 0,0 l/m 2 min 0 min 540 W/m 25,7 km/h (4 Bft) 97,83 %
23.05.2021 12:46 14,7 C 15,6 C 16,7 C 63 % 1014,9 hPa 0,0 l/m 2 min 0 min 454 W/m 29,0 km/h (5 Bft) 96,61 %
23.05.2021 12:48 14,7 C 15,6 C 16,7 C 64 % 1014,9 hPa 0,0 l/m 2 min 0 min 459 W/m 25,7 km/h (4 Bft) 97,87 %
23.05.2021 12:50 14,7 C 15,6 C 15,6 C 64 % 1014,8 hPa 0,0 l/m 2 min 0 min 450 W/m 25,7 km/h (4 Bft) 95,74 %
23.05.2021 12:52 14,6 C 15,0 C 14,5 C 64 % 1014,8 hPa 0,0 l/m 0 min 0 min 373 W/m 22,5 km/h (4 Bft) 97,83 %
23.05.2021 12:54 14,5 C 15,0 C 13,9 C 63 % 1014,7 hPa 0,0 l/m 0 min 0 min 357 W/m 19,3 km/h (3 Bft) 95,74 %
23.05.2021 12:56 14,4 C 14,4 C 13,9 C 63 % 1014,8 hPa 0,0 l/m 0 min 0 min 342 W/m 19,3 km/h (3 Bft) 95,74 %
23.05.2021 12:58 14,4 C 15,0 C 13,9 C 64 % 1014,8 hPa 0,0 l/m 0 min 0 min 251 W/m 29,0 km/h (5 Bft) 93,62 %
23.05.2021 13:00 14,4 C 15,6 C 16,7 C 63 % 1014,7 hPa 0,0 l/m 0 min 0 min 251 W/m 25,7 km/h (4 Bft) 97,87 %
23.05.2021 13:02 14,4 C 15,0 C 15,6 C 62 % 1014,8 hPa 0,0 l/m 0 min 0 min 254 W/m 19,3 km/h (3 Bft) 97,14 %
23.05.2021 13:04 14,4 C 15,0 C 14,5 C 62 % 1014,9 hPa 0,0 l/m 0 min 0 min 321 W/m 25,7 km/h (4 Bft) 97,87 %
23.05.2021 13:06 14,4 C 15,0 C 13,9 C 61 % 1014,8 hPa 0,0 l/m 0 min 0 min 383 W/m 16,1 km/h (3 Bft) 96,55 %
23.05.2021 13:08 14,3 C 15,0 C 13,9 C 62 % 1014,9 hPa 0,0 l/m 0 min 0 min 374 W/m 22,5 km/h (4 Bft) 97,14 %
23.05.2021 13:10 14,4 C 15,0 C 15,0 C 62 % 1014,9 hPa 0,0 l/m 0 min 0 min 370 W/m 19,3 km/h (3 Bft) 97,87 %
23.05.2021 13:12 14,4 C 15,0 C 15,0 C 62 % 1014,9 hPa 0,0 l/m 0 min 0 min 410 W/m 19,3 km/h (3 Bft) 97,87 %
23.05.2021 13:14 14,5 C 15,6 C 18,4 C 62 % 1014,9 hPa 0,0 l/m 2 min 0 min 809 W/m 12,9 km/h (3 Bft) 97,87 %
23.05.2021 13:16 14,7 C 16,1 C 20,0 C 63 % 1014,9 hPa 0,0 l/m 2 min 0 min 1095 W/m 16,1 km/h (3 Bft) 97,87 %
23.05.2021 13:18 14,8 C 16,1 C 18,4 C 60 % 1014,8 hPa 0,0 l/m 2 min 0 min 835 W/m 29,0 km/h (5 Bft) 97,87 %
23.05.2021 13:20 14,8 C 15,6 C 17,8 C 59 % 1014,9 hPa 0,0 l/m 0 min 0 min 396 W/m 38,6 km/h (5 Bft) 100,00 %
23.05.2021 13:22 14,8 C 16,1 C 19,5 C 58 % 1014,7 hPa 0,0 l/m 2 min 0 min 611 W/m 35,4 km/h (5 Bft) 97,87 %
23.05.2021 13:24 14,9 C 16,1 C 17,8 C 59 % 1014,8 hPa 0,0 l/m 2 min 0 min 859 W/m 29,0 km/h (5 Bft) 100,00 %
23.05.2021 13:26 14,9 C 15,6 C 16,1 C 59 % 1014,9 hPa 0,0 l/m 0 min 0 min 370 W/m 22,5 km/h (4 Bft) 100,00 %
23.05.2021 13:28 14,9 C 15,6 C 15,0 C 59 % 1014,9 hPa 0,0 l/m 0 min 0 min 380 W/m 32,2 km/h (5 Bft) 100,00 %
23.05.2021 13:30 14,9 C 15,0 C 15,0 C 59 % 1015,0 hPa 0,0 l/m 0 min 0 min 393 W/m 29,0 km/h (5 Bft) 97,87 %
23.05.2021 13:32 14,9 C 15,6 C 15,6 C 61 % 1015,0 hPa 0,0 l/m 0 min 0 min 390 W/m 16,1 km/h (3 Bft) 97,83 %
23.05.2021 13:34 14,8 C 15,6 C 16,7 C 61 % 1015,1 hPa 0,0 l/m 0 min 0 min 390 W/m 25,7 km/h (4 Bft) 97,87 %
23.05.2021 13:36 15,0 C 16,7 C 20,0 C 60 % 1015,1 hPa 0,0 l/m 2 min 0 min 987 W/m 19,3 km/h (3 Bft) 97,87 %
23.05.2021 13:38 15,1 C 17,8 C 22,3 C 61 % 1015,0 hPa 0,0 l/m 2 min 0 min 1049 W/m 19,3 km/h (3 Bft) 97,87 %
23.05.2021 13:40 15,3 C 18,3 C 22,8 C 61 % 1014,9 hPa 0,0 l/m 2 min 0 min 1095 W/m 16,1 km/h (3 Bft) 95,74 %
23.05.2021 13:42 15,5 C 18,3 C 23,4 C 59 % 1015,0 hPa 0,0 l/m 2 min 0 min 1076 W/m 19,3 km/h (3 Bft) 97,83 %
23.05.2021 13:44 15,6 C 17,8 C 20,0 C 59 % 1014,9 hPa 0,0 l/m 2 min 0 min 882 W/m 22,5 km/h (4 Bft) 97,87 %
23.05.2021 13:46 15,6 C 16,7 C 17,3 C 58 % 1014,9 hPa 0,0 l/m 0 min 0 min 281 W/m 22,5 km/h (4 Bft) 95,74 %
23.05.2021 13:48 15,4 C 16,1 C 15,6 C 57 % 1014,9 hPa 0,0 l/m 0 min 0 min 246 W/m 16,1 km/h (3 Bft) 97,87 %
23.05.2021 13:50 15,3 C 16,1 C 15,0 C 58 % 1014,9 hPa 0,0 l/m 0 min 0 min 293 W/m 16,1 km/h (3 Bft) 97,87 %
23.05.2021 13:52 15,3 C 16,7 C 15,0 C 60 % 1014,9 hPa 0,0 l/m 2 min 0 min 994 W/m 12,9 km/h (3 Bft) 97,87 %
23.05.2021 13:54 15,5 C 16,1 C 15,0 C 60 % 1014,9 hPa 0,0 l/m 2 min 0 min 600 W/m 16,1 km/h (3 Bft) 97,83 %
23.05.2021 13:56 15,4 C 16,1 C 14,5 C 59 % 1014,9 hPa 0,0 l/m 0 min 0 min 259 W/m 12,9 km/h (3 Bft) 95,74 %
23.05.2021 13:58 15,5 C 17,2 C 15,0 C 59 % 1014,9 hPa 0,0 l/m 2 min 0 min 570 W/m 22,5 km/h (4 Bft) 97,87 %
23.05.2021 14:00 15,6 C 17,8 C 15,0 C 58 % 1014,9 hPa 0,0 l/m 2 min 0 min 1108 W/m 12,9 km/h (3 Bft) 97,87 %
23.05.2021 14:02 15,7 C 16,7 C 14,5 C 57 % 1014,9 hPa 0,0 l/m 2 min 0 min 593 W/m 29,0 km/h (5 Bft) 93,62 %
23.05.2021 14:04 15,6 C 16,1 C 13,9 C 56 % 1014,9 hPa 0,0 l/m 0 min 0 min 250 W/m 25,7 km/h (4 Bft) 93,62 %
23.05.2021 14:06 15,4 C 15,6 C 13,4 C 56 % 1014,9 hPa 0,0 l/m 0 min 0 min 243 W/m 35,4 km/h (5 Bft) 95,65 %
23.05.2021 14:08 15,3 C 15,0 C 13,4 C 56 % 1015,0 hPa 0,0 l/m 0 min 0 min 292 W/m 25,7 km/h (4 Bft) 97,87 %
23.05.2021 14:10 15,1 C 15,0 C 12,8 C 57 % 1015,0 hPa 0,0 l/m 0 min 0 min 323 W/m 22,5 km/h (4 Bft) 93,62 %
23.05.2021 14:12 15,0 C 15,0 C 12,8 C 58 % 1015,0 hPa 0,0 l/m 0 min 0 min 309 W/m 19,3 km/h (3 Bft) 97,87 %
23.05.2021 14:14 14,9 C 15,0 C 12,8 C 58 % 1014,9 hPa 0,0 l/m 0 min 0 min 321 W/m 16,1 km/h (3 Bft) 97,87 %
23.05.2021 14:16 14,9 C 15,0 C 12,8 C 58 % 1014,9 hPa 0,0 l/m 0 min 0 min 356 W/m 22,5 km/h (4 Bft) 97,87 %
23.05.2021 14:18 14,9 C 16,7 C 13,4 C 58 % 1014,9 hPa 0,0 l/m 0 min 0 min 383 W/m 25,7 km/h (4 Bft) 93,48 %
23.05.2021 14:20 15,1 C 17,2 C 13,4 C 59 % 1014,8 hPa 0,0 l/m 0 min 0 min 383 W/m 25,7 km/h (4 Bft) 97,87 %
23.05.2021 14:22 15,3 C 17,2 C 13,9 C 58 % 1014,8 hPa 0,0 l/m 0 min 0 min 383 W/m 25,7 km/h (4 Bft) 97,87 %
23.05.2021 14:24 15,4 C 17,2 C 13,9 C 58 % 1014,8 hPa 0,0 l/m 0 min 0 min 402 W/m 19,3 km/h (3 Bft) 95,74 %
23.05.2021 14:26 15,4 C 17,2 C 13,9 C 57 % 1014,8 hPa 0,0 l/m 2 min 0 min 420 W/m 19,3 km/h (3 Bft) 97,87 %
23.05.2021 14:28 15,4 C 16,7 C 13,9 C 57 % 1014,8 hPa 0,0 l/m 2 min 0 min 479 W/m 25,7 km/h (4 Bft) 97,87 %
23.05.2021 14:30 15,5 C 17,2 C 13,9 C 57 % 1014,8 hPa 0,0 l/m 2 min 0 min 531 W/m 29,0 km/h (5 Bft) 97,83 %
23.05.2021 14:32 15,6 C 17,2 C 13,9 C 58 % 1014,7 hPa 0,0 l/m 2 min 0 min 496 W/m 16,1 km/h (3 Bft) 97,87 %
23.05.2021 14:34 15,6 C 17,2 C 13,9 C 58 % 1014,8 hPa 0,0 l/m 2 min 0 min 444 W/m 19,3 km/h (3 Bft) 97,87 %
23.05.2021 14:36 15,6 C 17,2 C 13,9 C 57 % 1014,8 hPa 0,0 l/m 2 min 0 min 434 W/m 16,1 km/h (3 Bft) 95,74 %
23.05.2021 14:38 15,7 C 17,2 C 13,9 C 58 % 1014,8 hPa 0,0 l/m 2 min 0 min 993 W/m 16,1 km/h (3 Bft) 97,87 %
23.05.2021 14:40 15,8 C 17,2 C 13,9 C 59 % 1014,7 hPa 0,0 l/m 2 min 0 min 478 W/m 12,9 km/h (3 Bft) 97,87 %
23.05.2021 14:42 15,7 C 16,1 C 13,4 C 58 % 1014,7 hPa 0,0 l/m 0 min 0 min 292 W/m 25,7 km/h (4 Bft) 97,83 %
23.05.2021 14:44 15,6 C 16,1 C 13,4 C 58 % 1014,8 hPa 0,0 l/m 0 min 0 min 276 W/m 19,3 km/h (3 Bft) 97,87 %
23.05.2021 14:46 15,6 C 16,7 C 13,4 C 60 % 1014,8 hPa 0,0 l/m 2 min 0 min 594 W/m 19,3 km/h (3 Bft) 97,87 %
23.05.2021 14:48 15,8 C 17,8 C 13,9 C 60 % 1014,8 hPa 0,0 l/m 2 min 0 min 1069 W/m 12,9 km/h (3 Bft) 97,87 %
23.05.2021 14:50 15,9 C 17,8 C 13,9 C 59 % 1014,8 hPa 0,0 l/m 2 min 0 min 882 W/m 29,0 km/h (5 Bft) 95,74 %
23.05.2021 14:52 15,9 C 17,8 C 13,9 C 58 % 1014,7 hPa 0,0 l/m 2 min 0 min 480 W/m 32,2 km/h (5 Bft) 95,74 %
23.05.2021 14:54 15,9 C 17,8 C 14,5 C 59 % 1014,7 hPa 0,0 l/m 2 min 0 min 462 W/m 29,0 km/h (5 Bft) 95,65 %
23.05.2021 14:56 15,9 C 17,2 C 13,9 C 58 % 1014,9 hPa 0,0 l/m 2 min 0 min 462 W/m 25,7 km/h (4 Bft) 97,87 %
23.05.2021 14:58 15,8 C 16,7 C 13,9 C 58 % 1014,8 hPa 0,0 l/m 2 min 0 min 462 W/m 19,3 km/h (3 Bft) 97,87 %
23.05.2021 15:00 15,8 C 16,1 C 13,9 C 59 % 1014,8 hPa 0,0 l/m 0 min 0 min 310 W/m 19,3 km/h (3 Bft) 100,00 %
23.05.2021 15:02 15,7 C 15,6 C 13,4 C 58 % 1014,8 hPa 0,0 l/m 0 min 0 min 236 W/m 19,3 km/h (3 Bft) 100,00 %
23.05.2021 15:04 15,5 C 15,6 C 13,4 C 58 % 1014,9 hPa 0,0 l/m 0 min 0 min 195 W/m 22,5 km/h (4 Bft) 100,00 %
23.05.2021 15:06 15,4 C 15,6 C 12,8 C 59 % 1014,8 hPa 0,0 l/m 0 min 0 min 199 W/m 16,1 km/h (3 Bft) 97,83 %
23.05.2021 15:08 15,3 C 15,6 C 12,8 C 59 % 1014,9 hPa 0,0 l/m 0 min 0 min 254 W/m 19,3 km/h (3 Bft) 100,00 %
23.05.2021 15:10 15,3 C 15,6 C 13,4 C 60 % 1014,9 hPa 0,0 l/m 0 min 0 min 298 W/m 12,9 km/h (3 Bft) 100,00 %
23.05.2021 15:12 15,3 C 15,6 C 13,4 C 60 % 1014,8 hPa 0,0 l/m 0 min 0 min 334 W/m 29,0 km/h (5 Bft) 100,00 %
23.05.2021 15:14 15,3 C 16,1 C 13,4 C 60 % 1014,8 hPa 0,0 l/m 0 min 0 min 358 W/m 12,9 km/h (3 Bft) 97,87 %
23.05.2021 15:16 15,4 C 16,7 C 13,4 C 60 % 1014,8 hPa 0,0 l/m 2 min 0 min 393 W/m 12,9 km/h (3 Bft) 95,74 %
23.05.2021 15:18 15,5 C 17,8 C 13,9 C 59 % 1014,8 hPa 0,0 l/m 2 min 0 min 1034 W/m 22,5 km/h (4 Bft) 100,00 %
23.05.2021 15:20 15,6 C 17,8 C 13,9 C 60 % 1014,8 hPa 0,0 l/m 2 min 0 min 998 W/m 16,1 km/h (3 Bft) 100,00 %
23.05.2021 15:22 15,7 C 17,2 C 13,9 C 58 % 1014,7 hPa 0,0 l/m 2 min 0 min 491 W/m 29,0 km/h (5 Bft) 100,00 %
23.05.2021 15:24 15,7 C 17,8 C 13,9 C 58 % 1014,7 hPa 0,0 l/m 2 min 0 min 519 W/m 32,2 km/h (5 Bft) 100,00 %
23.05.2021 15:26 15,9 C 18,9 C 13,9 C 60 % 1014,7 hPa 0,0 l/m 2 min 0 min 926 W/m 16,1 km/h (3 Bft) 100,00 %
23.05.2021 15:28 16,1 C 19,4 C 14,5 C 60 % 1014,7 hPa 0,0 l/m 2 min 0 min 964 W/m 12,9 km/h (3 Bft) 100,00 %
23.05.2021 15:30 16,3 C 18,9 C 14,5 C 60 % 1014,7 hPa 0,0 l/m 2 min 0 min 985 W/m 19,3 km/h (3 Bft) 97,83 %
23.05.2021 15:32 16,4 C 18,3 C 14,5 C 59 % 1014,8 hPa 0,0 l/m 2 min 0 min 481 W/m 19,3 km/h (3 Bft) 100,00 %
23.05.2021 15:34 16,4 C 18,9 C 14,5 C 58 % 1014,7 hPa 0,0 l/m 2 min 0 min 385 W/m 16,1 km/h (3 Bft) 97,87 %
23.05.2021 15:36 16,5 C 18,3 C 14,5 C 59 % 1014,7 hPa 0,0 l/m 0 min 0 min 336 W/m 9,7 km/h (2 Bft) 100,00 %
23.05.2021 15:38 16,5 C 17,8 C 14,5 C 58 % 1014,7 hPa 0,0 l/m 0 min 0 min 298 W/m 25,7 km/h (4 Bft) 100,00 %
23.05.2021 15:40 16,5 C 17,8 C 14,5 C 57 % 1014,7 hPa 0,0 l/m 2 min 0 min 425 W/m 19,3 km/h (3 Bft) 100,00 %
23.05.2021 15:42 16,4 C 18,3 C 14,5 C 56 % 1014,7 hPa 0,0 l/m 2 min 0 min 881 W/m 25,7 km/h (4 Bft) 97,87 %
23.05.2021 15:44 16,5 C 18,9 C 14,5 C 55 % 1014,7 hPa 0,0 l/m 2 min 0 min 881 W/m 22,5 km/h (4 Bft) 100,00 %
23.05.2021 15:46 16,5 C 18,9 C 13,9 C 56 % 1014,7 hPa 0,0 l/m 2 min 0 min 829 W/m 16,1 km/h (3 Bft) 97,83 %
23.05.2021 15:48 16,7 C 19,4 C 14,5 C 58 % 1014,6 hPa 0,0 l/m 2 min 0 min 863 W/m 16,1 km/h (3 Bft) 100,00 %
23.05.2021 15:50 16,9 C 20,0 C 14,5 C 59 % 1014,6 hPa 0,0 l/m 2 min 0 min 907 W/m 9,7 km/h (2 Bft) 100,00 %
23.05.2021 15:52 17,1 C 20,0 C 15,0 C 57 % 1014,7 hPa 0,0 l/m 2 min 0 min 880 W/m 19,3 km/h (3 Bft) 100,00 %
23.05.2021 15:54 17,1 C 20,0 C 15,0 C 56 % 1014,7 hPa 0,0 l/m 2 min 0 min 806 W/m 32,2 km/h (5 Bft) 100,00 %
23.05.2021 15:56 17,1 C 19,4 C 15,0 C 53 % 1014,7 hPa 0,0 l/m 2 min 0 min 817 W/m 29,0 km/h (5 Bft) 97,87 %
23.05.2021 15:58 17,0 C 17,8 C 14,5 C 54 % 1014,6 hPa 0,0 l/m 2 min 0 min 525 W/m 25,7 km/h (4 Bft) 97,87 %
23.05.2021 16:00 16,8 C 16,7 C 14,5 C 54 % 1014,6 hPa 0,0 l/m 0 min 0 min 272 W/m 41,8 km/h (6 Bft) 97,83 %
23.05.2021 16:02 16,6 C 18,3 C 13,9 C 56 % 1014,7 hPa 0,0 l/m 2 min 0 min 516 W/m 19,3 km/h (3 Bft) 95,74 %
23.05.2021 16:04 16,6 C 17,8 C 13,9 C 57 % 1014,7 hPa 0,0 l/m 2 min 0 min 849 W/m 12,9 km/h (3 Bft) 95,74 %
23.05.2021 16:06 16,6 C 18,3 C 14,5 C 57 % 1014,7 hPa 0,0 l/m 2 min 0 min 453 W/m 12,9 km/h (3 Bft) 95,74 %
23.05.2021 16:08 16,5 C 18,9 C 13,9 C 56 % 1014,7 hPa 0,0 l/m 2 min 0 min 455 W/m 25,7 km/h (4 Bft) 95,74 %
23.05.2021 16:10 16,6 C 20,0 C 14,5 C 56 % 1014,7 hPa 0,0 l/m 2 min 0 min 735 W/m 12,9 km/h (3 Bft) 97,83 %
23.05.2021 16:12 16,7 C 20,0 C 14,5 C 57 % 1014,7 hPa 0,0 l/m 2 min 0 min 851 W/m 19,3 km/h (3 Bft) 97,87 %
23.05.2021 16:14 16,8 C 20,0 C 14,5 C 56 % 1014,7 hPa 0,0 l/m 2 min 0 min 808 W/m 16,1 km/h (3 Bft) 97,87 %
23.05.2021 16:16 16,9 C 20,0 C 15,0 C 57 % 1014,7 hPa 0,0 l/m 2 min 0 min 860 W/m 19,3 km/h (3 Bft) 95,74 %
23.05.2021 16:18 16,9 C 20,0 C 15,0 C 55 % 1014,7 hPa 0,0 l/m 2 min 0 min 836 W/m 35,4 km/h (5 Bft) 95,74 %
23.05.2021 16:20 17,0 C 20,0 C 15,0 C 55 % 1014,9 hPa 0,0 l/m 2 min 0 min 801 W/m 29,0 km/h (5 Bft) 97,83 %
23.05.2021 16:22 17,1 C 20,0 C 15,0 C 55 % 1014,7 hPa 0,0 l/m 2 min 0 min 797 W/m 29,0 km/h (5 Bft) 97,87 %
23.05.2021 16:24 17,1 C 20,0 C 15,0 C 56 % 1014,8 hPa 0,0 l/m 2 min 0 min 773 W/m 25,7 km/h (4 Bft) 95,74 %
23.05.2021 16:26 17,0 C 18,9 C 15,0 C 53 % 1014,9 hPa 0,0 l/m 2 min 0 min 586 W/m 38,6 km/h (5 Bft) 95,74 %
23.05.2021 16:28 16,9 C 17,8 C 14,5 C 55 % 1014,7 hPa 0,0 l/m 2 min 0 min 477 W/m 29,0 km/h (5 Bft) 95,74 %
23.05.2021 16:30 16,8 C 17,2 C 14,5 C 56 % 1014,7 hPa 0,0 l/m 2 min 0 min 410 W/m 12,9 km/h (3 Bft) 95,74 %
23.05.2021 16:32 16,8 C 17,2 C 14,5 C 55 % 1014,8 hPa 0,0 l/m 0 min 0 min 267 W/m 19,3 km/h (3 Bft) 95,65 %
23.05.2021 16:34 16,6 C 17,2 C 14,5 C 55 % 1014,7 hPa 0,0 l/m 0 min 0 min 326 W/m 16,1 km/h (3 Bft) 93,62 %
23.05.2021 16:36 16,5 C 17,2 C 14,5 C 55 % 1014,7 hPa 0,0 l/m 2 min 0 min 366 W/m 22,5 km/h (4 Bft) 92,00 %
23.05.2021 16:38 16,5 C 17,8 C 14,5 C 57 % 1014,7 hPa 0,0 l/m 2 min 0 min 461 W/m 12,9 km/h (3 Bft) 93,62 %
23.05.2021 16:40 16,5 C 18,3 C 14,5 C 56 % 1014,7 hPa 0,0 l/m 2 min 0 min 550 W/m 19,3 km/h (3 Bft) 95,74 %
23.05.2021 16:42 16,5 C 18,3 C 14,5 C 56 % 1014,7 hPa 0,0 l/m 2 min 0 min 614 W/m 22,5 km/h (4 Bft) 95,74 %
23.05.2021 16:44 16,5 C 18,3 C 14,5 C 56 % 1014,7 hPa 0,0 l/m 2 min 0 min 569 W/m 32,2 km/h (5 Bft) 97,83 %
23.05.2021 16:46 16,5 C 18,3 C 14,5 C 56 % 1014,7 hPa 0,0 l/m 2 min 0 min 548 W/m 32,2 km/h (5 Bft) 97,87 %
23.05.2021 16:48 16,5 C 18,9 C 14,5 C 57 % 1014,7 hPa 0,0 l/m 2 min 0 min 559 W/m 19,3 km/h (3 Bft) 95,74 %
23.05.2021 16:50 16,5 C 18,3 C 14,5 C 56 % 1014,7 hPa 0,0 l/m 2 min 0 min 562 W/m 45,1 km/h (6 Bft) 93,62 %
23.05.2021 16:52 16,4 C 17,2 C 13,9 C 55 % 1014,6 hPa 0,0 l/m 2 min 0 min 523 W/m 32,2 km/h (5 Bft) 97,87 %
23.05.2021 16:54 16,4 C 17,2 C 14,5 C 57 % 1014,6 hPa 0,0 l/m 0 min 0 min 311 W/m 16,1 km/h (3 Bft) 97,87 %
23.05.2021 16:56 16,4 C 17,8 C 14,5 C 57 % 1014,7 hPa 0,0 l/m 2 min 0 min 355 W/m 29,0 km/h (5 Bft) 95,65 %
23.05.2021 16:58 16,4 C 17,8 C 13,9 C 57 % 1014,6 hPa 0,0 l/m 2 min 0 min 373 W/m 12,9 km/h (3 Bft) 97,87 %
23.05.2021 17:00 16,4 C 18,3 C 14,5 C 57 % 1014,6 hPa 0,0 l/m 2 min 0 min 409 W/m 9,7 km/h (2 Bft) 97,87 %
23.05.2021 17:02 16,5 C 18,3 C 14,5 C 58 % 1014,6 hPa 0,0 l/m 2 min 0 min 415 W/m 16,1 km/h (3 Bft) 89,36 %
23.05.2021 17:04 16,5 C 18,9 C 14,5 C 58 % 1014,5 hPa 0,0 l/m 2 min 0 min 360 W/m 22,5 km/h (4 Bft) 93,62 %
23.05.2021 17:06 16,6 C 19,4 C 14,5 C 56 % 1014,6 hPa 0,0 l/m 2 min 0 min 697 W/m 22,5 km/h (4 Bft) 89,36 %
23.05.2021 17:08 16,6 C 18,9 C 14,5 C 56 % 1014,5 hPa 0,0 l/m 2 min 0 min 773 W/m 29,0 km/h (5 Bft) 82,61 %
23.05.2021 17:10 16,5 C 18,9 C 14,5 C 55 % 1014,6 hPa 0,0 l/m 2 min 0 min 674 W/m 41,8 km/h (6 Bft) 91,49 %
23.05.2021 17:12 16,5 C 18,3 C 13,9 C 55 % 1014,6 hPa 0,0 l/m 2 min 0 min 563 W/m 38,6 km/h (5 Bft) 95,74 %
23.05.2021 17:14 16,5 C 17,8 C 13,9 C 56 % 1014,6 hPa 0,0 l/m 2 min 0 min 385 W/m 22,5 km/h (4 Bft) 95,74 %
23.05.2021 17:16 16,4 C 16,7 C 13,9 C 56 % 1014,6 hPa 0,0 l/m 0 min 0 min 225 W/m 32,2 km/h (5 Bft) 93,62 %
23.05.2021 17:18 16,3 C 16,7 C 13,9 C 56 % 1014,5 hPa 0,0 l/m 0 min 0 min 212 W/m 19,3 km/h (3 Bft) 93,62 %
23.05.2021 17:20 16,3 C 16,7 C 13,9 C 57 % 1014,6 hPa 0,0 l/m 0 min 0 min 232 W/m 22,5 km/h (4 Bft) 95,65 %
23.05.2021 17:22 16,3 C 16,7 C 13,9 C 57 % 1014,5 hPa 0,0 l/m 0 min 0 min 232 W/m 22,5 km/h (4 Bft) 95,74 %
23.05.2021 17:24 16,3 C 16,7 C 13,9 C 58 % 1014,5 hPa 0,0 l/m 0 min 0 min 280 W/m 19,3 km/h (3 Bft) 93,62 %
23.05.2021 17:26 16,3 C 16,7 C 13,9 C 57 % 1014,6 hPa 0,0 l/m 2 min 0 min 335 W/m 22,5 km/h (4 Bft) 95,74 %
23.05.2021 17:28 16,3 C 16,7 C 13,9 C 58 % 1014,7 hPa 0,0 l/m 2 min 0 min 309 W/m 22,5 km/h (4 Bft) 95,74 %
23.05.2021 17:30 16,3 C 16,7 C 13,9 C 57 % 1014,6 hPa 0,0 l/m 2 min 0 min 279 W/m 22,5 km/h (4 Bft) 97,83 %
23.05.2021 17:32 16,3 C 16,1 C 13,9 C 56 % 1014,6 hPa 0,0 l/m 0 min 0 min 226 W/m 25,7 km/h (4 Bft) 97,87 %
23.05.2021 17:34 16,3 C 16,1 C 13,9 C 57 % 1014,5 hPa 0,0 l/m 0 min 0 min 216 W/m 16,1 km/h (3 Bft) 97,87 %
23.05.2021 17:36 16,2 C 16,7 C 13,9 C 57 % 1014,5 hPa 0,0 l/m 0 min 0 min 247 W/m 16,1 km/h (3 Bft) 93,62 %
23.05.2021 17:38 16,3 C 17,2 C 13,9 C 58 % 1014,4 hPa 0,0 l/m 2 min 0 min 289 W/m 12,9 km/h (3 Bft) 97,87 %
23.05.2021 17:40 16,3 C 17,2 C 13,9 C 59 % 1014,4 hPa 0,0 l/m 2 min 0 min 286 W/m 6,4 km/h (2 Bft) 97,87 %
23.05.2021 17:42 16,3 C 17,2 C 13,9 C 58 % 1014,4 hPa 0,0 l/m 2 min 0 min 304 W/m 16,1 km/h (3 Bft) 97,87 %
23.05.2021 17:44 16,4 C 17,8 C 13,9 C 58 % 1014,4 hPa 0,0 l/m 2 min 0 min 345 W/m 12,9 km/h (3 Bft) 97,83 %
23.05.2021 17:46 16,4 C 17,8 C 13,9 C 58 % 1014,4 hPa 0,0 l/m 2 min 0 min 318 W/m 12,9 km/h (3 Bft) 97,87 %
23.05.2021 17:48 16,4 C 17,2 C 13,9 C 57 % 1014,4 hPa 0,0 l/m 2 min 0 min 316 W/m 25,7 km/h (4 Bft) 100,00 %
23.05.2021 17:50 16,4 C 17,2 C 13,9 C 58 % 1014,3 hPa 0,0 l/m 2 min 0 min 305 W/m 16,1 km/h (3 Bft) 97,87 %
23.05.2021 17:52 16,4 C 17,2 C 13,9 C 57 % 1014,4 hPa 0,0 l/m 2 min 0 min 301 W/m 16,1 km/h (3 Bft) 95,74 %
23.05.2021 17:54 16,3 C 16,7 C 13,9 C 58 % 1014,3 hPa 0,0 l/m 2 min 0 min 289 W/m 19,3 km/h (3 Bft) 95,65 %
23.05.2021 17:56 16,3 C 16,7 C 13,9 C 58 % 1014,4 hPa 0,0 l/m 0 min 0 min 246 W/m 16,1 km/h (3 Bft) 100,00 %
23.05.2021 17:58 16,3 C 16,7 C 13,9 C 58 % 1014,4 hPa 0,0 l/m 0 min 0 min 244 W/m 22,5 km/h (4 Bft) 100,00 %
23.05.2021 18:00 16,3 C 16,7 C 13,9 C 57 % 1014,4 hPa 0,0 l/m 2 min 0 min 267 W/m 16,1 km/h (3 Bft) 97,87 %
23.05.2021 18:02 16,3 C 16,7 C 13,9 C 57 % 1014,5 hPa 0,0 l/m 2 min 0 min 250 W/m 22,5 km/h (4 Bft) 100,00 %
23.05.2021 18:04 16,3 C 16,7 C 13,9 C 57 % 1014,3 hPa 0,0 l/m 2 min 0 min 254 W/m 19,3 km/h (3 Bft) 100,00 %
23.05.2021 18:08 16,1 C 16,7 C 13,4 C 57 % 1014,4 hPa 0,0 l/m 4 min 0 min 323 W/m 29,0 km/h (5 Bft) 98,92 %
23.05.2021 18:10 16,1 C 16,7 C 13,4 C 57 % 1014,4 hPa 0,0 l/m 2 min 0 min 279 W/m 29,0 km/h (5 Bft) 97,87 %
23.05.2021 18:12 16,0 C 16,1 C 13,4 C 57 % 1014,4 hPa 0,0 l/m 2 min 0 min 265 W/m 48,3 km/h (6 Bft) 52,27 %
23.05.2021 18:14 16,0 C 16,1 C 13,4 C 58 % 1014,4 hPa 0,0 l/m 2 min 0 min 266 W/m 25,7 km/h (4 Bft) 100,00 %
23.05.2021 18:16 16,0 C 16,1 C 13,4 C 58 % 1014,3 hPa 0,0 l/m 2 min 0 min 267 W/m 19,3 km/h (3 Bft) 100,00 %
23.05.2021 18:18 15,9 C 16,7 C 13,4 C 58 % 1014,3 hPa 0,0 l/m 2 min 0 min 311 W/m 29,0 km/h (5 Bft) 100,00 %
23.05.2021 18:20 16,0 C 17,2 C 13,4 C 58 % 1014,2 hPa 0,0 l/m 2 min 0 min 312 W/m 12,9 km/h (3 Bft) 100,00 %
23.05.2021 18:22 16,0 C 17,2 C 13,4 C 59 % 1014,2 hPa 0,0 l/m 2 min 0 min 301 W/m 19,3 km/h (3 Bft) 100,00 %
23.05.2021 18:24 16,1 C 17,2 C 13,9 C 60 % 1014,2 hPa 0,0 l/m 2 min 0 min 243 W/m 12,9 km/h (3 Bft) 100,00 %
23.05.2021 18:26 16,1 C 16,7 C 13,4 C 59 % 1014,2 hPa 0,0 l/m 0 min 0 min 209 W/m 25,7 km/h (4 Bft) 100,00 %
23.05.2021 18:28 16,0 C 16,7 C 13,4 C 59 % 1014,3 hPa 0,0 l/m 2 min 0 min 227 W/m 32,2 km/h (5 Bft) 100,00 %
23.05.2021 18:30 16,0 C 16,7 C 13,4 C 59 % 1014,2 hPa 0,0 l/m 2 min 0 min 222 W/m 16,1 km/h (3 Bft) 100,00 %
23.05.2021 18:32 15,9 C 16,1 C 13,4 C 59 % 1014,2 hPa 0,0 l/m 0 min 0 min 187 W/m 29,0 km/h (5 Bft) 100,00 %
23.05.2021 18:34 15,9 C 16,1 C 13,4 C 59 % 1014,2 hPa 0,0 l/m 0 min 0 min 192 W/m 22,5 km/h (4 Bft) 97,87 %
23.05.2021 18:36 15,9 C 16,1 C 13,4 C 60 % 1014,2 hPa 0,0 l/m 0 min 0 min 200 W/m 19,3 km/h (3 Bft) 95,74 %
23.05.2021 18:38 15,9 C 16,1 C 13,4 C 60 % 1014,2 hPa 0,0 l/m 0 min 0 min 195 W/m 9,7 km/h (2 Bft) 97,87 %
23.05.2021 18:40 15,9 C 16,7 C 13,4 C 60 % 1014,2 hPa 0,0 l/m 2 min 0 min 225 W/m 19,3 km/h (3 Bft) 97,87 %
23.05.2021 18:42 15,9 C 16,1 C 13,4 C 60 % 1014,2 hPa 0,0 l/m 2 min 0 min 230 W/m 16,1 km/h (3 Bft) 95,65 %
23.05.2021 18:44 15,9 C 16,7 C 13,4 C 60 % 1014,2 hPa 0,0 l/m 2 min 0 min 259 W/m 19,3 km/h (3 Bft) 89,36 %
23.05.2021 18:46 16,0 C 16,7 C 13,4 C 60 % 1014,2 hPa 0,0 l/m 2 min 0 min 232 W/m 16,1 km/h (3 Bft) 91,49 %
23.05.2021 18:48 16,0 C 16,1 C 13,4 C 59 % 1014,2 hPa 0,0 l/m 2 min 0 min 217 W/m 16,1 km/h (3 Bft) 97,87 %
23.05.2021 18:50 16,0 C 16,7 C 13,4 C 59 % 1014,2 hPa 0,0 l/m 2 min 0 min 261 W/m 22,5 km/h (4 Bft) 95,74 %
23.05.2021 18:52 16,0 C 16,7 C 13,4 C 60 % 1014,1 hPa 0,0 l/m 2 min 0 min 219 W/m 19,3 km/h (3 Bft) 97,87 %
23.05.2021 18:54 16,0 C 16,1 C 13,4 C 60 % 1014,1 hPa 0,0 l/m 0 min 0 min 167 W/m 16,1 km/h (3 Bft) 93,48 %
23.05.2021 18:56 16,0 C 16,1 C 13,4 C 60 % 1014,1 hPa 0,0 l/m 0 min 0 min 145 W/m 16,1 km/h (3 Bft) 91,49 %
23.05.2021 18:58 16,0 C 15,6 C 13,4 C 60 % 1014,2 hPa 0,0 l/m 0 min 0 min 127 W/m 25,7 km/h (4 Bft) 97,87 %
23.05.2021 19:00 16,0 C 16,1 C 13,4 C 60 % 1014,1 hPa 0,0 l/m 0 min 0 min 123 W/m 12,9 km/h (3 Bft) 97,87 %
23.05.2021 19:02 16,0 C 16,1 C 13,4 C 60 % 1014,1 hPa 0,0 l/m 0 min 0 min 133 W/m 6,4 km/h (2 Bft) 97,87 %
23.05.2021 19:04 16,0 C 16,1 C 13,4 C 61 % 1014,1 hPa 0,0 l/m 0 min 0 min 114 W/m 6,4 km/h (2 Bft) 91,49 %
23.05.2021 19:06 16,0 C 15,6 C 13,4 C 61 % 1014,1 hPa 0,0 l/m 0 min 0 min 98 W/m 16,1 km/h (3 Bft) 93,48 %
23.05.2021 19:08 16,0 C 15,6 C 12,8 C 62 % 1014,1 hPa 0,0 l/m 0 min 0 min 100 W/m 6,4 km/h (2 Bft) 91,49 %
23.05.2021 19:10 16,0 C 15,6 C 12,8 C 61 % 1014,1 hPa 0,0 l/m 0 min 0 min 115 W/m 6,4 km/h (2 Bft) 91,49 %
23.05.2021 19:12 15,9 C 15,6 C 12,8 C 61 % 1014,1 hPa 0,0 l/m 0 min 0 min 124 W/m 16,1 km/h (3 Bft) 91,49 %
23.05.2021 19:14 15,9 C 15,6 C 12,8 C 60 % 1014,1 hPa 0,0 l/m 0 min 0 min 128 W/m 19,3 km/h (3 Bft) 97,87 %
23.05.2021 19:16 15,9 C 15,6 C 12,8 C 60 % 1014,1 hPa 0,0 l/m 0 min 0 min 125 W/m 16,1 km/h (3 Bft) 100,00 %
23.05.2021 19:18 15,9 C 15,6 C 12,8 C 60 % 1014,0 hPa 0,0 l/m 0 min 0 min 119 W/m 16,1 km/h (3 Bft) 100,00 %
23.05.2021 19:20 15,8 C 15,6 C 12,8 C 60 % 1014,1 hPa 0,0 l/m 0 min 0 min 117 W/m 16,1 km/h (3 Bft) 100,00 %
23.05.2021 19:22 15,8 C 15,6 C 12,8 C 60 % 1014,0 hPa 0,0 l/m 0 min 0 min 123 W/m 19,3 km/h (3 Bft) 100,00 %
23.05.2021 19:24 15,8 C 15,6 C 12,8 C 61 % 1014,0 hPa 0,0 l/m 0 min 0 min 127 W/m 12,9 km/h (3 Bft) 100,00 %
23.05.2021 19:26 15,8 C 15,6 C 12,8 C 61 % 1014,0 hPa 0,0 l/m 0 min 0 min 134 W/m 9,7 km/h (2 Bft) 100,00 %
23.05.2021 19:28 15,7 C 15,6 C 12,8 C 61 % 1014,0 hPa 0,0 l/m 0 min 0 min 133 W/m 19,3 km/h (3 Bft) 100,00 %
23.05.2021 19:30 15,7 C 15,6 C 12,8 C 60 % 1014,0 hPa 0,0 l/m 0 min 0 min 128 W/m 16,1 km/h (3 Bft) 97,83 %
23.05.2021 19:32 15,7 C 15,6 C 12,8 C 61 % 1014,0 hPa 0,0 l/m 0 min 0 min 129 W/m 16,1 km/h (3 Bft) 100,00 %
23.05.2021 19:34 15,7 C 15,6 C 12,8 C 61 % 1014,0 hPa 0,0 l/m 2 min 0 min 143 W/m 9,7 km/h (2 Bft) 100,00 %
23.05.2021 19:36 15,7 C 15,6 C 12,8 C 61 % 1014,0 hPa 0,0 l/m 2 min 0 min 160 W/m 9,7 km/h (2 Bft) 97,87 %
23.05.2021 19:38 15,7 C 15,6 C 12,8 C 61 % 1013,9 hPa 0,0 l/m 2 min 0 min 159 W/m 12,9 km/h (3 Bft) 100,00 %
23.05.2021 19:40 15,7 C 15,6 C 12,8 C 61 % 1013,9 hPa 0,0 l/m 2 min 0 min 142 W/m 12,9 km/h (3 Bft) 97,87 %
23.05.2021 19:42 15,7 C 15,6 C 12,8 C 61 % 1013,8 hPa 0,0 l/m 2 min 0 min 124 W/m 12,9 km/h (3 Bft) 95,65 %
23.05.2021 19:44 15,7 C 15,6 C 12,8 C 61 % 1013,8 hPa 0,0 l/m 2 min 0 min 121 W/m 12,9 km/h (3 Bft) 97,87 %
23.05.2021 19:46 15,7 C 15,6 C 12,8 C 60 % 1013,8 hPa 0,0 l/m 2 min 0 min 119 W/m 25,7 km/h (4 Bft) 97,87 %
23.05.2021 19:48 15,7 C 15,6 C 12,8 C 60 % 1013,8 hPa 0,0 l/m 2 min 0 min 116 W/m 12,9 km/h (3 Bft) 97,87 %
23.05.2021 19:50 15,8 C 15,6 C 12,8 C 60 % 1013,8 hPa 0,0 l/m 2 min 0 min 113 W/m 22,5 km/h (4 Bft) 95,74 %
23.05.2021 19:52 15,8 C 15,6 C 12,8 C 61 % 1013,8 hPa 0,0 l/m 0 min 0 min 107 W/m 19,3 km/h (3 Bft) 97,87 %
23.05.2021 19:54 15,8 C 15,6 C 12,8 C 60 % 1013,8 hPa 0,0 l/m 0 min 0 min 95 W/m 12,9 km/h (3 Bft) 95,65 %
23.05.2021 19:56 15,7 C 15,0 C 12,8 C 60 % 1013,8 hPa 0,0 l/m 0 min 0 min 90 W/m 19,3 km/h (3 Bft) 97,87 %
23.05.2021 19:58 15,7 C 15,0 C 12,8 C 60 % 1013,8 hPa 0,0 l/m 0 min 0 min 90 W/m 12,9 km/h (3 Bft) 97,87 %
23.05.2021 20:00 15,7 C 15,0 C 12,8 C 61 % 1013,8 hPa 0,0 l/m 0 min 0 min 91 W/m 12,9 km/h (3 Bft) 97,87 %
23.05.2021 20:02 15,7 C 15,0 C 12,8 C 60 % 1013,9 hPa 0,0 l/m 0 min 0 min 95 W/m 19,3 km/h (3 Bft) 97,87 %
23.05.2021 20:04 15,6 C 15,0 C 12,8 C 60 % 1013,8 hPa 0,0 l/m 2 min 0 min 100 W/m 22,5 km/h (4 Bft) 97,87 %
23.05.2021 20:06 15,7 C 15,0 C 12,8 C 61 % 1013,9 hPa 0,0 l/m 2 min 0 min 97 W/m 6,4 km/h (2 Bft) 97,83 %
23.05.2021 20:08 15,7 C 15,6 C 12,8 C 61 % 1013,8 hPa 0,0 l/m 2 min 0 min 90 W/m 16,1 km/h (3 Bft) 97,87 %
23.05.2021 20:10 15,7 C 15,0 C 12,8 C 61 % 1013,8 hPa 0,0 l/m 0 min 0 min 85 W/m 16,1 km/h (3 Bft) 95,74 %
23.05.2021 20:12 15,7 C 15,0 C 12,3 C 62 % 1013,8 hPa 0,0 l/m 0 min 0 min 80 W/m 19,3 km/h (3 Bft) 97,87 %
23.05.2021 20:14 15,6 C 15,0 C 12,3 C 62 % 1013,7 hPa 0,0 l/m 0 min 0 min 75 W/m 12,9 km/h (3 Bft) 97,87 %
23.05.2021 20:16 15,6 C 15,0 C 12,3 C 62 % 1013,7 hPa 0,0 l/m 0 min 0 min 72 W/m 9,7 km/h (2 Bft) 97,87 %
23.05.2021 20:18 15,6 C 15,0 C 12,3 C 61 % 1013,7 hPa 0,0 l/m 0 min 0 min 69 W/m 12,9 km/h (3 Bft) 97,83 %
23.05.2021 20:20 15,6 C 15,0 C 12,3 C 61 % 1013,7 hPa 0,0 l/m 0 min 0 min 64 W/m 19,3 km/h (3 Bft) 95,74 %
23.05.2021 20:22 15,6 C 15,0 C 12,3 C 61 % 1013,7 hPa 0,0 l/m 0 min 0 min 61 W/m 16,1 km/h (3 Bft) 93,62 %
23.05.2021 20:24 15,6 C 15,0 C 12,3 C 61 % 1013,6 hPa 0,0 l/m 0 min 0 min 57 W/m 6,4 km/h (2 Bft) 95,74 %
23.05.2021 20:26 15,5 C 15,0 C 12,3 C 61 % 1013,6 hPa 0,0 l/m 0 min 0 min 55 W/m 12,9 km/h (3 Bft) 95,74 %
23.05.2021 20:28 15,5 C 14,4 C 12,3 C 61 % 1013,6 hPa 0,0 l/m 0 min 0 min 53 W/m 12,9 km/h (3 Bft) 97,87 %
23.05.2021 20:30 15,5 C 14,4 C 12,3 C 62 % 1013,7 hPa 0,0 l/m 0 min 0 min 53 W/m 9,7 km/h (2 Bft) 97,83 %
23.05.2021 20:32 15,5 C 14,4 C 12,3 C 61 % 1013,6 hPa 0,0 l/m 0 min 0 min 53 W/m 16,1 km/h (3 Bft) 97,87 %
23.05.2021 20:34 15,5 C 14,4 C 12,3 C 61 % 1013,7 hPa 0,0 l/m 0 min 0 min 52 W/m 9,7 km/h (2 Bft) 95,74 %
23.05.2021 20:36 15,4 C 14,4 C 12,3 C 61 % 1013,7 hPa 0,0 l/m 0 min 0 min 49 W/m 25,7 km/h (4 Bft) 97,87 %
23.05.2021 20:38 15,4 C 14,4 C 12,3 C 61 % 1013,6 hPa 0,0 l/m 0 min 0 min 46 W/m 16,1 km/h (3 Bft) 97,87 %
23.05.2021 20:40 15,3 C 14,4 C 11,7 C 61 % 1013,6 hPa 0,0 l/m 0 min 0 min 42 W/m 12,9 km/h (3 Bft) 97,87 %
23.05.2021 20:42 15,3 C 14,4 C 11,7 C 61 % 1013,6 hPa 0,0 l/m 0 min 0 min 39 W/m 12,9 km/h (3 Bft) 97,83 %
23.05.2021 20:44 15,3 C 14,4 C 11,7 C 61 % 1013,7 hPa 0,0 l/m 0 min 0 min 37 W/m 9,7 km/h (2 Bft) 97,87 %
23.05.2021 20:46 15,3 C 14,4 C 11,7 C 62 % 1013,6 hPa 0,0 l/m 0 min 0 min 35 W/m 6,4 km/h (2 Bft) 95,74 %
23.05.2021 20:48 15,2 C 14,4 C 11,7 C 62 % 1013,6 hPa 0,0 l/m 0 min 0 min 34 W/m 6,4 km/h (2 Bft) 97,87 %
23.05.2021 20:50 15,2 C 14,4 C 11,7 C 62 % 1013,6 hPa 0,0 l/m 0 min 0 min 33 W/m 6,4 km/h (2 Bft) 97,87 %
23.05.2021 20:52 15,1 C 13,9 C 11,7 C 62 % 1013,6 hPa 0,0 l/m 0 min 0 min 31 W/m 12,9 km/h (3 Bft) 97,87 %
23.05.2021 20:54 15,1 C 13,9 C 11,7 C 62 % 1013,6 hPa 0,0 l/m 0 min 0 min 29 W/m 6,4 km/h (2 Bft) 93,48 %
23.05.2021 20:56 15,1 C 13,9 C 11,7 C 62 % 1013,6 hPa 0,0 l/m 0 min 0 min 26 W/m 6,4 km/h (2 Bft) 97,87 %
23.05.2021 20:58 15,0 C 13,9 C 11,7 C 62 % 1013,7 hPa 0,0 l/m 0 min 0 min 25 W/m 6,4 km/h (2 Bft) 97,87 %
23.05.2021 21:00 15,0 C 13,9 C 11,7 C 63 % 1013,7 hPa 0,0 l/m 0 min 0 min 23 W/m 6,4 km/h (2 Bft) 97,87 %
23.05.2021 21:02 15,0 C 13,9 C 11,1 C 63 % 1013,8 hPa 0,0 l/m 0 min 0 min 21 W/m 3,2 km/h (1 Bft) 97,87 %
23.05.2021 21:04 14,9 C 13,9 C 11,1 C 63 % 1013,7 hPa 0,0 l/m 0 min 0 min 19 W/m 6,4 km/h (2 Bft) 97,83 %
23.05.2021 21:06 14,9 C 13,9 C 11,1 C 63 % 1013,7 hPa 0,0 l/m 0 min 0 min 16 W/m 3,2 km/h (1 Bft) 95,74 %
23.05.2021 21:08 14,9 C 13,3 C 11,1 C 63 % 1013,7 hPa 0,0 l/m 0 min 0 min 15 W/m 6,4 km/h (2 Bft) 97,87 %
23.05.2021 21:10 14,8 C 13,3 C 11,1 C 63 % 1013,7 hPa 0,0 l/m 0 min 0 min 14 W/m 3,2 km/h (1 Bft) 97,87 %
23.05.2021 21:12 14,8 C 13,3 C 11,1 C 63 % 1013,7 hPa 0,0 l/m 0 min 0 min 12 W/m 6,4 km/h (2 Bft) 97,87 %
23.05.2021 21:14 14,8 C 13,3 C 11,1 C 64 % 1013,7 hPa 0,0 l/m 0 min 0 min 11 W/m 6,4 km/h (2 Bft) 97,87 %
23.05.2021 21:16 14,7 C 13,3 C 11,1 C 64 % 1013,7 hPa 0,0 l/m 0 min 0 min 11 W/m 6,4 km/h (2 Bft) 97,83 %
23.05.2021 21:18 14,6 C 13,3 C 11,1 C 64 % 1013,8 hPa 0,0 l/m 0 min 0 min 9 W/m 6,4 km/h (2 Bft) 95,74 %
23.05.2021 21:20 14,6 C 13,3 C 10,6 C 64 % 1013,8 hPa 0,0 l/m 0 min 0 min 7 W/m 6,4 km/h (2 Bft) 95,74 %
23.05.2021 21:22 14,5 C 12,8 C 10,6 C 64 % 1013,8 hPa 0,0 l/m 0 min 0 min 7 W/m 3,2 km/h (1 Bft) 93,62 %
23.05.2021 21:24 14,5 C 12,8 C 10,6 C 65 % 1013,8 hPa 0,0 l/m 0 min 0 min 5 W/m 3,2 km/h (1 Bft) 95,74 %
23.05.2021 21:26 14,4 C 12,8 C 10,6 C 65 % 1013,9 hPa 0,0 l/m 0 min 0 min 4 W/m 3,2 km/h (1 Bft) 97,87 %
23.05.2021 21:28 14,4 C 12,8 C 10,6 C 65 % 1013,8 hPa 0,0 l/m 0 min 0 min 0 W/m 3,2 km/h (1 Bft) 97,83 %
23.05.2021 21:30 14,2 C 12,8 C 10,6 C 65 % 1013,9 hPa 0,0 l/m 0 min 0 min 0 W/m 6,4 km/h (2 Bft) 89,36 %
23.05.2021 21:32 14,2 C 12,8 C 10,6 C 65 % 1013,9 hPa 0,0 l/m 0 min 0 min 0 W/m 9,7 km/h (2 Bft) 93,62 %
23.05.2021 21:34 14,2 C 12,8 C 10,6 C 65 % 1013,9 hPa 0,0 l/m 0 min 0 min 0 W/m 6,4 km/h (2 Bft) 95,74 %
23.05.2021 21:36 14,2 C 12,8 C 10,6 C 65 % 1013,9 hPa 0,0 l/m 0 min 0 min 0 W/m 6,4 km/h (2 Bft) 97,87 %
23.05.2021 21:38 14,2 C 12,8 C 10,6 C 65 % 1013,8 hPa 0,0 l/m 0 min 0 min 0 W/m 3,2 km/h (1 Bft) 97,87 %
23.05.2021 21:40 14,1 C 12,8 C 10,0 C 66 % 1013,9 hPa 0,0 l/m 0 min 0 min 0 W/m 6,4 km/h (2 Bft) 97,87 %
23.05.2021 21:42 14,0 C 12,2 C 10,0 C 66 % 1013,9 hPa 0,0 l/m 0 min 0 min 0 W/m 3,2 km/h (1 Bft) 97,83 %
23.05.2021 21:44 14,0 C 12,2 C 10,0 C 66 % 1013,9 hPa 0,0 l/m 0 min 0 min 0 W/m 3,2 km/h (1 Bft) 95,74 %
23.05.2021 21:46 13,9 C 12,2 C 10,0 C 67 % 1013,9 hPa 0,0 l/m 0 min 0 min 0 W/m 3,2 km/h (1 Bft) 97,87 %
23.05.2021 21:48 13,9 C 12,2 C 10,0 C 67 % 1013,9 hPa 0,0 l/m 0 min 0 min 0 W/m 6,4 km/h (2 Bft) 95,74 %
23.05.2021 21:50 13,8 C 12,2 C 10,0 C 67 % 1013,9 hPa 0,0 l/m 0 min 0 min 0 W/m 6,4 km/h (2 Bft) 97,87 %
23.05.2021 21:52 13,7 C 12,2 C 10,0 C 67 % 1013,9 hPa 0,0 l/m 0 min 0 min 0 W/m 6,4 km/h (2 Bft) 97,83 %
23.05.2021 21:54 13,6 C 12,2 C 10,0 C 67 % 1014,0 hPa 0,0 l/m 0 min 0 min 0 W/m 6,4 km/h (2 Bft) 95,74 %
23.05.2021 21:56 13,6 C 12,2 C 10,0 C 68 % 1013,9 hPa 0,0 l/m 0 min 0 min 0 W/m 3,2 km/h (1 Bft) 95,74 %
23.05.2021 21:58 13,5 C 12,2 C 10,0 C 68 % 1014,0 hPa 0,0 l/m 0 min 0 min 0 W/m 3,2 km/h (1 Bft) 93,62 %
23.05.2021 22:00 13,5 C 12,2 C 10,0 C 68 % 1013,9 hPa 0,0 l/m 0 min 0 min 0 W/m 3,2 km/h (1 Bft) 97,87 %
23.05.2021 22:02 13,5 C 12,2 C 10,0 C 68 % 1013,9 hPa 0,0 l/m 0 min 0 min 0 W/m 6,4 km/h (2 Bft) 95,74 %
23.05.2021 22:04 13,4 C 12,2 C 10,0 C 68 % 1013,9 hPa 0,0 l/m 0 min 0 min 0 W/m 3,2 km/h (1 Bft) 95,65 %
23.05.2021 22:06 13,4 C 12,2 C 10,0 C 69 % 1013,9 hPa 0,0 l/m 0 min 0 min 0 W/m 3,2 km/h (1 Bft) 95,74 %
23.05.2021 22:08 13,3 C 12,2 C 9,5 C 69 % 1013,9 hPa 0,0 l/m 0 min 0 min 0 W/m 6,4 km/h (2 Bft) 100,00 %
23.05.2021 22:10 13,3 C 11,7 C 9,5 C 69 % 1013,9 hPa 0,0 l/m 0 min 0 min 0 W/m 6,4 km/h (2 Bft) 95,83 %
23.05.2021 22:12 13,2 C 11,7 C 9,5 C 69 % 1013,9 hPa 0,0 l/m 0 min 0 min 0 W/m 3,2 km/h (1 Bft) 97,83 %
23.05.2021 22:14 13,2 C 11,7 C 9,5 C 69 % 1014,0 hPa 0,0 l/m 0 min 0 min 0 W/m 3,2 km/h (1 Bft) 97,87 %
23.05.2021 22:16 13,1 C 11,7 C 9,5 C 70 % 1013,9 hPa 0,0 l/m 0 min 0 min 0 W/m 6,4 km/h (2 Bft) 97,87 %
23.05.2021 22:18 13,1 C 11,7 C 9,5 C 70 % 1013,9 hPa 0,0 l/m 0 min 0 min 0 W/m 12,9 km/h (3 Bft) 97,87 %
23.05.2021 22:20 13,0 C 11,7 C 9,5 C 70 % 1013,9 hPa 0,0 l/m 0 min 0 min 0 W/m 6,4 km/h (2 Bft) 97,87 %
23.05.2021 22:22 13,0 C 11,7 C 9,5 C 71 % 1013,9 hPa 0,0 l/m 0 min 0 min 0 W/m 12,9 km/h (3 Bft) 97,87 %
23.05.2021 22:24 12,9 C 11,7 C 9,5 C 71 % 1013,8 hPa 0,0 l/m 0 min 0 min 0 W/m 12,9 km/h (3 Bft) 97,83 %
23.05.2021 22:26 12,9 C 11,7 C 9,5 C 71 % 1013,8 hPa 0,0 l/m 0 min 0 min 0 W/m 6,4 km/h (2 Bft) 97,87 %
23.05.2021 22:28 12,8 C 11,7 C 9,5 C 71 % 1013,9 hPa 0,0 l/m 0 min 0 min 0 W/m 6,4 km/h (2 Bft) 97,87 %
23.05.2021 22:30 12,8 C 11,7 C 9,5 C 71 % 1013,8 hPa 0,0 l/m 0 min 0 min 0 W/m 16,1 km/h (3 Bft) 97,87 %
23.05.2021 22:32 12,8 C 11,7 C 9,5 C 71 % 1013,9 hPa 0,0 l/m 0 min 0 min 0 W/m 6,4 km/h (2 Bft) 97,87 %
23.05.2021 22:34 12,7 C 11,7 C 9,5 C 71 % 1013,8 hPa 0,0 l/m 0 min 0 min 0 W/m 12,9 km/h (3 Bft) 97,87 %
23.05.2021 22:36 12,6 C 11,7 C 9,5 C 71 % 1013,8 hPa 0,0 l/m 0 min 0 min 0 W/m 6,4 km/h (2 Bft) 97,83 %
23.05.2021 22:38 12,6 C 11,7 C 9,5 C 71 % 1013,9 hPa 0,0 l/m 0 min 0 min 0 W/m 6,4 km/h (2 Bft) 97,87 %
23.05.2021 22:40 12,6 C 11,7 C 9,5 C 71 % 1013,8 hPa 0,0 l/m 0 min 0 min 0 W/m 12,9 km/h (3 Bft) 97,87 %
23.05.2021 22:42 12,6 C 11,7 C 9,5 C 71 % 1013,7 hPa 0,0 l/m 0 min 0 min 0 W/m 9,7 km/h (2 Bft) 95,74 %
23.05.2021 22:44 12,6 C 11,7 C 9,5 C 71 % 1013,8 hPa 0,0 l/m 0 min 0 min 0 W/m 3,2 km/h (1 Bft) 100,00 %
23.05.2021 22:46 12,5 C 11,7 C 9,5 C 70 % 1013,7 hPa 0,0 l/m 0 min 0 min 0 W/m 6,4 km/h (2 Bft) 97,87 %
23.05.2021 22:48 12,5 C 11,7 C 9,5 C 70 % 1013,7 hPa 0,0 l/m 0 min 0 min 0 W/m 3,2 km/h (1 Bft) 100,00 %
23.05.2021 22:50 12,5 C 11,7 C 9,5 C 70 % 1013,7 hPa 0,0 l/m 0 min 0 min 0 W/m 6,4 km/h (2 Bft) 100,00 %
23.05.2021 22:52 12,5 C 11,7 C 9,5 C 70 % 1013,7 hPa 0,0 l/m 0 min 0 min 0 W/m 3,2 km/h (1 Bft) 100,00 %
23.05.2021 22:54 12,5 C 11,7 C 9,5 C 70 % 1013,7 hPa 0,0 l/m 0 min 0 min 0 W/m 6,4 km/h (2 Bft) 100,00 %
23.05.2021 22:56 12,5 C 11,7 C 9,5 C 70 % 1013,7 hPa 0,0 l/m 0 min 0 min 0 W/m 12,9 km/h (3 Bft) 97,87 %
23.05.2021 22:58 12,4 C 11,7 C 9,5 C 70 % 1013,7 hPa 0,0 l/m 0 min 0 min 0 W/m 6,4 km/h (2 Bft) 95,74 %
23.05.2021 23:00 12,4 C 11,7 C 9,5 C 70 % 1013,7 hPa 0,0 l/m 0 min 0 min 0 W/m 12,9 km/h (3 Bft) 100,00 %
23.05.2021 23:02 12,4 C 11,7 C 9,5 C 70 % 1013,6 hPa 0,0 l/m 0 min 0 min 0 W/m 9,7 km/h (2 Bft) 100,00 %
23.05.2021 23:04 12,4 C 11,7 C 9,5 C 70 % 1013,7 hPa 0,0 l/m 0 min 0 min 0 W/m 16,1 km/h (3 Bft) 100,00 %
23.05.2021 23:06 12,4 C 11,7 C 9,5 C 70 % 1013,6 hPa 0,0 l/m 0 min 0 min 0 W/m 6,4 km/h (2 Bft) 100,00 %
23.05.2021 23:08 12,4 C 11,7 C 9,5 C 70 % 1013,6 hPa 0,0 l/m 0 min 0 min 0 W/m 6,4 km/h (2 Bft) 100,00 %
23.05.2021 23:10 12,4 C 11,7 C 9,5 C 70 % 1013,6 hPa 0,0 l/m 0 min 0 min 0 W/m 6,4 km/h (2 Bft) 100,00 %
23.05.2021 23:12 12,4 C 11,7 C 9,5 C 70 % 1013,6 hPa 0,0 l/m 0 min 0 min 0 W/m 6,4 km/h (2 Bft) 100,00 %
23.05.2021 23:14 12,4 C 11,7 C 9,5 C 70 % 1013,6 hPa 0,0 l/m 0 min 0 min 0 W/m 12,9 km/h (3 Bft) 100,00 %
23.05.2021 23:16 12,3 C 11,7 C 9,5 C 70 % 1013,6 hPa 0,0 l/m 0 min 0 min 0 W/m 6,4 km/h (2 Bft) 97,87 %
23.05.2021 23:18 12,3 C 11,7 C 9,5 C 70 % 1013,6 hPa 0,0 l/m 0 min 0 min 0 W/m 9,7 km/h (2 Bft) 100,00 %
23.05.2021 23:20 12,3 C 11,7 C 8,9 C 70 % 1013,6 hPa 0,0 l/m 0 min 0 min 0 W/m 6,4 km/h (2 Bft) 100,00 %
23.05.2021 23:22 12,3 C 11,7 C 8,9 C 70 % 1013,6 hPa 0,0 l/m 0 min 0 min 0 W/m 9,7 km/h (2 Bft) 100,00 %
23.05.2021 23:24 12,3 C 11,7 C 8,9 C 70 % 1013,5 hPa 0,0 l/m 0 min 0 min 0 W/m 6,4 km/h (2 Bft) 100,00 %
23.05.2021 23:26 12,3 C 11,1 C 8,9 C 70 % 1013,5 hPa 0,0 l/m 0 min 0 min 0 W/m 6,4 km/h (2 Bft) 100,00 %
23.05.2021 23:28 12,2 C 11,1 C 8,9 C 70 % 1013,5 hPa 0,0 l/m 0 min 0 min 0 W/m 12,9 km/h (3 Bft) 100,00 %
23.05.2021 23:30 12,2 C 11,1 C 8,9 C 70 % 1013,4 hPa 0,0 l/m 0 min 0 min 0 W/m 6,4 km/h (2 Bft) 100,00 %
23.05.2021 23:32 12,2 C 11,1 C 8,9 C 70 % 1013,4 hPa 0,0 l/m 0 min 0 min 0 W/m 3,2 km/h (1 Bft) 100,00 %
23.05.2021 23:34 12,1 C 11,1 C 8,9 C 70 % 1013,4 hPa 0,0 l/m 0 min 0 min 0 W/m 6,4 km/h (2 Bft) 100,00 %
23.05.2021 23:36 12,1 C 11,1 C 8,9 C 70 % 1013,4 hPa 0,0 l/m 0 min 0 min 0 W/m 6,4 km/h (2 Bft) 100,00 %
23.05.2021 23:38 12,1 C 11,1 C 8,9 C 70 % 1013,4 hPa 0,0 l/m 0 min 0 min 0 W/m 6,4 km/h (2 Bft) 100,00 %
23.05.2021 23:40 12,1 C 11,1 C 8,9 C 70 % 1013,4 hPa 0,0 l/m 0 min 0 min 0 W/m 6,4 km/h (2 Bft) 100,00 %
23.05.2021 23:42 12,0 C 11,1 C 8,9 C 70 % 1013,5 hPa 0,0 l/m 0 min 0 min 0 W/m 6,4 km/h (2 Bft) 100,00 %
23.05.2021 23:44 12,0 C 11,1 C 8,9 C 71 % 1013,5 hPa 0,0 l/m 0 min 0 min 0 W/m 6,4 km/h (2 Bft) 100,00 %
23.05.2021 23:46 12,0 C 11,1 C 8,9 C 71 % 1013,4 hPa 0,0 l/m 0 min 0 min 0 W/m 6,4 km/h (2 Bft) 100,00 %
23.05.2021 23:48 12,0 C 11,1 C 8,9 C 71 % 1013,4 hPa 0,0 l/m 0 min 0 min 0 W/m 6,4 km/h (2 Bft) 100,00 %
23.05.2021 23:50 12,0 C 11,1 C 8,9 C 71 % 1013,4 hPa 0,0 l/m 0 min 0 min 0 W/m 6,4 km/h (2 Bft) 100,00 %
23.05.2021 23:52 11,9 C 11,1 C 8,9 C 71 % 1013,4 hPa 0,0 l/m 0 min 0 min 0 W/m 6,4 km/h (2 Bft) 100,00 %
23.05.2021 23:54 11,9 C 11,1 C 8,9 C 71 % 1013,4 hPa 0,0 l/m 0 min 0 min 0 W/m 12,9 km/h (3 Bft) 100,00 %
23.05.2021 23:56 11,9 C 11,1 C 8,9 C 71 % 1013,3 hPa 0,0 l/m 0 min 0 min 0 W/m 6,4 km/h (2 Bft) 97,87 %
23.05.2021 23:58 11,9 C 11,1 C 8,9 C 71 % 1013,3 hPa 0,0 l/m 0 min 0 min 0 W/m 3,2 km/h (1 Bft) 100,00 %
_ Min-Zeit 03:40 02:20 00:00 15:56 00:00 - - - - 01:16 18:12
Minimum _ 9,1 C 8,3 C 7,3 C 53 % 1009,1 hPa - - - - 3,2 km/h (1 Bft) 52,27 %
_ Max-Zeit 15:52 15:50 12:40 04:52 13:34 01:24 18:08 01:22 14:00 18:12 00:00
Maximum _ 17,1 C 20,0 C 23,4 C 98 % 1015,1 hPa 0,2 l/m 4 min 2 min 1108 W/m 48,3 km/h
SO (6 Bft)
100,00 %
Durchschnitt _ 12,6 C 12,7 C 10,9 C 76 % 1012,8 hPa #1,6 l/m #7:02 h #2:12 h 339 W/m 15,8 km/h (3 Bft) 97,49 %
© 2021 W. Hausmann